| time (UTC) | temp F | wind direction | speed MPH | gust MPH | rain 1hr in | rain 24hr in | rain mn in | humidity % | barometer mb |
| 20260507213232 | 52 | 120 | 13.0 | 14.0 | 0.00 | 0.00 | 0.00 | 79 | 1015.8 |
| 20260507213102 | 52 | 116 | 13.0 | 17.0 | 0.00 | 0.00 | 0.00 | 79 | 1015.8 |
| 20260507212932 | 52 | 121 | 9.0 | 14.0 | 0.00 | 0.00 | 0.00 | 79 | 1015.8 |
| 20260507212832 | 52 | 117 | 12.0 | 14.0 | 0.00 | 0.00 | 0.00 | 79 | 1015.8 |
| 20260507212702 | 52 | 117 | 10.0 | 16.0 | 0.00 | 0.00 | 0.00 | 79 | 1015.8 |
| 20260507212602 | 52 | 119 | 10.0 | 13.0 | 0.00 | 0.00 | 0.00 | 79 | 1015.8 |
| 20260507212432 | 52 | 122 | 13.0 | 17.0 | 0.00 | 0.00 | 0.00 | 79 | 1015.8 |
| 20260507212306 | 52 | 119 | 10.0 | 14.0 | 0.00 | 0.00 | 0.00 | 79 | 1015.8 |
| 20260507212202 | 52 | 124 | 12.0 | 13.0 | 0.00 | 0.00 | 0.00 | 79 | 1015.8 |
| 20260507212102 | 52 | 125 | 13.0 | 15.0 | 0.00 | 0.00 | 0.00 | 80 | 1015.8 |
| 20260507212002 | 52 | 121 | 12.0 | 16.0 | 0.00 | 0.00 | 0.00 | 80 | 1015.8 |
| 20260507211902 | 52 | 120 | 10.0 | 14.0 | 0.00 | 0.00 | 0.00 | 80 | 1015.8 |
| 20260507211802 | 52 | 113 | 9.0 | 12.0 | 0.00 | 0.00 | 0.00 | 80 | 1015.9 |
| 20260507211702 | 52 | 127 | 9.0 | 12.0 | 0.00 | 0.00 | 0.00 | 80 | 1015.8 |
| 20260507211602 | 52 | 114 | 9.0 | 12.0 | 0.00 | 0.00 | 0.00 | 80 | 1015.8 |
| 20260507211432 | 52 | 119 | 9.0 | 10.0 | 0.00 | 0.00 | 0.00 | 80 | 1015.8 |
| 20260507211332 | 52 | 121 | 10.0 | 13.0 | 0.00 | 0.00 | 0.00 | 80 | 1015.8 |
| 20260507211232 | 52 | 122 | 12.0 | 13.0 | 0.00 | 0.00 | 0.00 | 80 | 1015.8 |
| 20260507211132 | 52 | 122 | 10.0 | 15.0 | 0.00 | 0.00 | 0.00 | 81 | 1015.8 |
| 20260507211002 | 52 | 116 | 12.0 | 14.0 | 0.00 | 0.00 | 0.00 | 81 | 1015.8 |
| 20260507210902 | 52 | 110 | 10.0 | 15.0 | 0.00 | 0.00 | 0.00 | 81 | 1015.8 |
| 20260507210802 | 52 | 116 | 10.0 | 13.0 | 0.00 | 0.00 | 0.00 | 81 | 1015.8 |
| 20260507210632 | 52 | 114 | 12.0 | 14.0 | 0.00 | 0.00 | 0.00 | 82 | 1015.7 |
| 20260507210502 | 52 | 108 | 12.0 | 13.0 | 0.00 | 0.00 | 0.00 | 82 | 1015.7 |
| 20260507210402 | 52 | 110 | 12.0 | 13.0 | 0.00 | 0.00 | 0.00 | 82 | 1015.7 |
| 20260507210302 | 52 | 100 | 12.0 | 16.0 | 0.00 | 0.00 | 0.00 | 82 | 1015.7 |
| 20260507210202 | 52 | 110 | 13.0 | 16.0 | 0.00 | 0.00 | 0.00 | 82 | 1015.7 |
| 20260507210032 | 52 | 123 | 10.0 | 15.0 | 0.00 | 0.00 | 0.00 | 83 | 1015.7 |
| 20260507205902 | 52 | 117 | 10.0 | 12.0 | 0.00 | 0.00 | 0.00 | 83 | 1015.7 |
| 20260507205802 | 52 | 122 | 12.0 | 14.0 | 0.00 | 0.00 | 0.00 | 83 | 1015.6 |
| 20260507205632 | 52 | 115 | 9.0 | 13.0 | 0.00 | 0.00 | 0.00 | 83 | 1015.7 |
| 20260507205502 | 52 | 110 | 10.0 | 12.0 | 0.00 | 0.00 | 0.00 | 83 | 1015.7 |
| 20260507205402 | 52 | 106 | 10.0 | 13.0 | 0.00 | 0.00 | 0.00 | 83 | 1015.7 |
| 20260507205302 | 52 | 122 | 12.0 | 15.0 | 0.00 | 0.00 | 0.00 | 83 | 1015.7 |
| 20260507205202 | 52 | 112 | 9.0 | 15.0 | 0.00 | 0.00 | 0.00 | 83 | 1015.7 |
| 20260507205032 | 52 | 111 | 13.0 | 14.0 | 0.00 | 0.00 | 0.00 | 83 | 1015.7 |
| 20260507204932 | 52 | 114 | 10.0 | 16.0 | 0.00 | 0.00 | 0.00 | 83 | 1015.7 |
| 20260507204802 | 52 | 117 | 12.0 | 13.0 | 0.00 | 0.00 | 0.00 | 83 | 1015.7 |
| 20260507204702 | 52 | 112 | 12.0 | 14.0 | 0.00 | 0.00 | 0.00 | 83 | 1015.7 |
| 20260507204602 | 52 | 112 | 9.0 | 13.0 | 0.00 | 0.00 | 0.00 | 83 | 1015.6 |
| 20260507204431 | 52 | 125 | 12.0 | 14.0 | 0.00 | 0.00 | 0.00 | 83 | 1015.7 |
| 20260507204332 | 52 | 119 | 13.0 | 15.0 | 0.00 | 0.00 | 0.00 | 83 | 1015.7 |
| 20260507204232 | 52 | 115 | 12.0 | 15.0 | 0.00 | 0.00 | 0.00 | 83 | 1015.7 |
| 20260507204131 | 52 | 123 | 10.0 | 14.0 | 0.00 | 0.00 | 0.00 | 83 | 1015.6 |
| 20260507204002 | 52 | 115 | 12.0 | 15.0 | 0.00 | 0.00 | 0.00 | 83 | 1015.6 |
| 20260507203831 | 52 | 116 | 10.0 | 14.0 | 0.00 | 0.00 | 0.00 | 83 | 1015.6 |
| 20260507203732 | 52 | 111 | 8.0 | 12.0 | 0.00 | 0.00 | 0.00 | 83 | 1015.6 |
| 20260507203631 | 52 | 111 | 10.0 | 15.0 | 0.00 | 0.00 | 0.00 | 83 | 1015.6 |
| 20260507203531 | 52 | 111 | 9.0 | 13.0 | 0.00 | 0.00 | 0.00 | 83 | 1015.6 |
| 20260507203431 | 52 | 124 | 9.0 | 12.0 | 0.00 | 0.00 | 0.00 | 83 | 1015.6 |
| 20260507203331 | 52 | 99 | 8.0 | 12.0 | 0.00 | 0.00 | 0.00 | 83 | 1015.6 |
| 20260507203202 | 52 | 113 | 8.0 | 10.0 | 0.00 | 0.00 | 0.00 | 83 | 1015.5 |
| 20260507203031 | 52 | 115 | 10.0 | 13.0 | 0.00 | 0.00 | 0.00 | 82 | 1015.6 |
| 20260507202931 | 52 | 112 | 9.0 | 12.0 | 0.00 | 0.00 | 0.00 | 82 | 1015.5 |
| 20260507202831 | 52 | 117 | 9.0 | 13.0 | 0.00 | 0.00 | 0.00 | 82 | 1015.5 |
| 20260507202731 | 52 | 120 | 8.0 | 13.0 | 0.00 | 0.00 | 0.00 | 82 | 1015.5 |
| 20260507202601 | 52 | 118 | 9.0 | 12.0 | 0.00 | 0.00 | 0.00 | 82 | 1015.5 |
| 20260507202431 | 52 | 107 | 9.0 | 13.0 | 0.00 | 0.00 | 0.00 | 82 | 1015.5 |
| 20260507202331 | 52 | 109 | 8.0 | 13.0 | 0.00 | 0.00 | 0.00 | 83 | 1015.5 |
| 20260507202231 | 52 | 115 | 8.0 | 9.0 | 0.00 | 0.00 | 0.00 | 82 | 1015.5 |
| 20260507202101 | 52 | 123 | 9.0 | 12.0 | 0.00 | 0.00 | 0.00 | 83 | 1015.5 |
| 20260507202001 | 52 | 121 | 10.0 | 12.0 | 0.00 | 0.00 | 0.00 | 83 | 1015.5 |
| 20260507201901 | 52 | 111 | 10.0 | 12.0 | 0.00 | 0.00 | 0.00 | 83 | 1015.5 |
| 20260507201801 | 52 | 106 | 12.0 | 16.0 | 0.00 | 0.00 | 0.00 | 83 | 1015.5 |
| 20260507201631 | 52 | 121 | 10.0 | 12.0 | 0.00 | 0.00 | 0.00 | 83 | 1015.4 |
| 20260507201502 | 52 | 120 | 9.0 | 14.0 | 0.00 | 0.00 | 0.00 | 83 | 1015.4 |
| 20260507201331 | 52 | 114 | 12.0 | 14.0 | 0.00 | 0.00 | 0.00 | 83 | 1015.4 |
| 20260507201201 | 52 | 113 | 12.0 | 16.0 | 0.00 | 0.00 | 0.00 | 83 | 1015.4 |
| 20260507201031 | 52 | 119 | 8.0 | 13.0 | 0.00 | 0.00 | 0.00 | 83 | 1015.4 |
| 20260507200931 | 52 | 117 | 9.0 | 12.0 | 0.00 | 0.00 | 0.00 | 83 | 1015.3 |
| 20260507200801 | 52 | 116 | 12.0 | 14.0 | 0.00 | 0.00 | 0.00 | 83 | 1015.3 |
| 20260507200701 | 52 | 118 | 10.0 | 14.0 | 0.00 | 0.00 | 0.00 | 83 | 1015.3 |
| 20260507200601 | 52 | 127 | 8.0 | 12.0 | 0.00 | 0.00 | 0.00 | 83 | 1015.3 |
| 20260507200431 | 52 | 110 | 7.0 | 10.0 | 0.00 | 0.00 | 0.00 | 83 | 1015.2 |
| 20260507200331 | 52 | 117 | 9.0 | 9.0 | 0.00 | 0.00 | 0.00 | 83 | 1015.2 |
| 20260507200201 | 52 | 126 | 8.0 | 12.0 | 0.00 | 0.00 | 0.00 | 83 | 1015.3 |
| 20260507200001 | 52 | 127 | 9.0 | 12.0 | 0.00 | 0.00 | 0.00 | 83 | 1015.2 |
| 20260507195901 | 52 | 123 | 8.0 | 12.0 | 0.00 | 0.00 | 0.00 | 83 | 1015.2 |
| 20260507195732 | 52 | 122 | 9.0 | 12.0 | 0.00 | 0.00 | 0.00 | 82 | 1015.2 |
| 20260507195631 | 52 | 128 | 8.0 | 12.0 | 0.00 | 0.00 | 0.00 | 82 | 1015.1 |
| 20260507195531 | 52 | 120 | 8.0 | 12.0 | 0.00 | 0.00 | 0.00 | 82 | 1015.1 |
| 20260507195431 | 52 | 114 | 8.0 | 10.0 | 0.00 | 0.00 | 0.00 | 82 | 1015.1 |
| 20260507195331 | 52 | 113 | 8.0 | 12.0 | 0.00 | 0.00 | 0.00 | 82 | 1015.1 |
| 20260507195201 | 52 | 116 | 8.0 | 12.0 | 0.00 | 0.00 | 0.00 | 82 | 1015.1 |
| 20260507195101 | 52 | 111 | 9.0 | 12.0 | 0.00 | 0.00 | 0.00 | 82 | 1015.0 |
| 20260507195001 | 52 | 115 | 9.0 | 12.0 | 0.00 | 0.00 | 0.00 | 82 | 1015.0 |
| 20260507194901 | 52 | 119 | 10.0 | 13.0 | 0.00 | 0.00 | 0.00 | 82 | 1015.0 |
| 20260507194731 | 52 | 101 | 12.0 | 13.0 | 0.00 | 0.00 | 0.00 | 82 | 1015.0 |
| 20260507194631 | 52 | 112 | 12.0 | 14.0 | 0.00 | 0.00 | 0.00 | 82 | 1014.9 |
| 20260507194501 | 52 | 104 | 9.0 | 12.0 | 0.00 | 0.00 | 0.00 | 82 | 1014.9 |
| 20260507194401 | 52 | 113 | 10.0 | 14.0 | 0.00 | 0.00 | 0.00 | 82 | 1014.9 |
| 20260507194301 | 53 | 116 | 10.0 | 13.0 | 0.00 | 0.00 | 0.00 | 82 | 1014.9 |
| 20260507194201 | 52 | 103 | 10.0 | 13.0 | 0.00 | 0.00 | 0.00 | 82 | 1014.8 |
| 20260507194031 | 52 | 99 | 10.0 | 16.0 | 0.00 | 0.00 | 0.00 | 81 | 1014.8 |
| 20260507193931 | 52 | 97 | 9.0 | 12.0 | 0.00 | 0.00 | 0.00 | 81 | 1014.9 |
| 20260507193831 | 52 | 99 | 12.0 | 13.0 | 0.00 | 0.00 | 0.00 | 81 | 1014.8 |
| 20260507193701 | 52 | 109 | 13.0 | 16.0 | 0.00 | 0.00 | 0.00 | 81 | 1014.8 |
| 20260507193601 | 52 | 109 | 10.0 | 16.0 | 0.00 | 0.00 | 0.00 | 81 | 1014.9 |
| 20260507193431 | 53 | 110 | 10.0 | 16.0 | 0.00 | 0.00 | 0.00 | 81 | 1014.8 |
| 20260507193331 | 53 | 101 | 12.0 | 16.0 | 0.00 | 0.00 | 0.00 | 81 | 1014.9 |
| 20260507193231 | 53 | 85 | 10.0 | 16.0 | 0.00 | 0.00 | 0.00 | 81 | 1014.8 |
| 20260507193131 | 53 | 93 | 9.0 | 14.0 | 0.00 | 0.00 | 0.00 | 81 | 1014.8 |
| 20260507193031 | 53 | 101 | 9.0 | 12.0 | 0.00 | 0.00 | 0.00 | 81 | 1014.9 |
| 20260507192901 | 53 | 104 | 10.0 | 13.0 | 0.00 | 0.00 | 0.00 | 81 | 1014.9 |
| 20260507192801 | 53 | 103 | 12.0 | 13.0 | 0.00 | 0.00 | 0.00 | 80 | 1014.9 |
| 20260507192701 | 53 | 103 | 12.0 | 15.0 | 0.00 | 0.00 | 0.00 | 80 | 1014.9 |
| 20260507192531 | 53 | 114 | 9.0 | 15.0 | 0.00 | 0.00 | 0.00 | 80 | 1014.9 |
| 20260507192431 | 53 | 108 | 10.0 | 12.0 | 0.00 | 0.00 | 0.00 | 80 | 1014.9 |
| 20260507192331 | 53 | 106 | 10.0 | 14.0 | 0.00 | 0.00 | 0.00 | 80 | 1014.8 |
| 20260507192231 | 53 | 102 | 10.0 | 14.0 | 0.00 | 0.00 | 0.00 | 80 | 1014.9 |
| 20260507192101 | 53 | 102 | 10.0 | 14.0 | 0.00 | 0.00 | 0.00 | 80 | 1014.9 |
| 20260507192001 | 53 | 100 | 9.0 | 12.0 | 0.00 | 0.00 | 0.00 | 80 | 1014.8 |
| 20260507191831 | 53 | 101 | 10.0 | 14.0 | 0.00 | 0.00 | 0.00 | 80 | 1014.9 |
| 20260507191731 | 53 | 108 | 10.0 | 14.0 | 0.00 | 0.00 | 0.00 | 80 | 1014.8 |
| 20260507191601 | 53 | 110 | 9.0 | 14.0 | 0.00 | 0.00 | 0.00 | 80 | 1014.9 |
| 20260507191431 | 53 | 106 | 12.0 | 13.0 | 0.00 | 0.00 | 0.00 | 80 | 1014.9 |
| 20260507191331 | 53 | 103 | 12.0 | 14.0 | 0.00 | 0.00 | 0.00 | 80 | 1014.8 |
| 20260507191231 | 53 | 102 | 10.0 | 13.0 | 0.00 | 0.00 | 0.00 | 80 | 1014.9 |
| 20260507191131 | 53 | 105 | 10.0 | 13.0 | 0.00 | 0.00 | 0.00 | 80 | 1014.9 |
| 20260507191031 | 53 | 109 | 9.0 | 12.0 | 0.00 | 0.00 | 0.00 | 80 | 1014.9 |
| 20260507190901 | 53 | 99 | 9.0 | 13.0 | 0.00 | 0.00 | 0.00 | 80 | 1014.8 |
| 20260507190731 | 53 | 88 | 9.0 | 12.0 | 0.00 | 0.00 | 0.00 | 80 | 1014.9 |
| 20260507190631 | 53 | 104 | 9.0 | 12.0 | 0.00 | 0.00 | 0.00 | 80 | 1014.9 |
| 20260507190501 | 53 | 109 | 9.0 | 13.0 | 0.00 | 0.00 | 0.00 | 80 | 1014.8 |
| 20260507190331 | 53 | 103 | 9.0 | 12.0 | 0.00 | 0.00 | 0.00 | 80 | 1014.9 |
| 20260507190231 | 53 | 97 | 8.0 | 12.0 | 0.00 | 0.00 | 0.00 | 80 | 1014.8 |
| 20260507190131 | 53 | 103 | 8.0 | 10.0 | 0.00 | 0.00 | 0.00 | 80 | 1014.9 |
| 20260507190002 | 53 | 98 | 9.0 | 12.0 | 0.00 | 0.00 | 0.00 | 80 | 1014.8 |
| 20260507185831 | 53 | 111 | 8.0 | 12.0 | 0.00 | 0.00 | 0.00 | 80 | 1014.9 |
| 20260507185731 | 53 | 108 | 7.0 | 12.0 | 0.00 | 0.00 | 0.00 | 80 | 1014.8 |
| 20260507185631 | 53 | 95 | 8.0 | 9.0 | 0.00 | 0.00 | 0.00 | 80 | 1014.8 |
| 20260507185531 | 53 | 105 | 8.0 | 10.0 | 0.00 | 0.00 | 0.00 | 80 | 1014.8 |
| 20260507185401 | 53 | 103 | 8.0 | 10.0 | 0.00 | 0.00 | 0.00 | 80 | 1014.8 |
| 20260507185305 | 53 | 113 | 10.0 | 13.0 | 0.00 | 0.00 | 0.00 | 80 | 1014.8 |
| 20260507185131 | 53 | 96 | 10.0 | 13.0 | 0.00 | 0.00 | 0.00 | 80 | 1014.8 |
| 20260507185031 | 53 | 104 | 8.0 | 13.0 | 0.00 | 0.00 | 0.00 | 80 | 1014.8 |
| 20260507184931 | 53 | 101 | 8.0 | 12.0 | 0.00 | 0.00 | 0.00 | 80 | 1014.7 |
| 20260507184831 | 53 | 94 | 9.0 | 12.0 | 0.00 | 0.00 | 0.00 | 80 | 1014.8 |
| 20260507184731 | 53 | 108 | 8.0 | 12.0 | 0.00 | 0.00 | 0.00 | 80 | 1014.8 |
| 20260507184601 | 53 | 116 | 8.0 | 12.0 | 0.00 | 0.00 | 0.00 | 80 | 1014.8 |
| 20260507184431 | 53 | 116 | 8.0 | 12.0 | 0.00 | 0.00 | 0.00 | 80 | 1014.8 |
| 20260507184301 | 53 | 113 | 8.0 | 10.0 | 0.00 | 0.00 | 0.00 | 80 | 1014.8 |
| 20260507184201 | 53 | 118 | 9.0 | 12.0 | 0.00 | 0.00 | 0.00 | 80 | 1014.8 |
| 20260507184101 | 53 | 111 | 9.0 | 12.0 | 0.00 | 0.00 | 0.00 | 80 | 1014.8 |
| 20260507183931 | 53 | 110 | 9.0 | 13.0 | 0.00 | 0.00 | 0.00 | 80 | 1014.9 |
| 20260507183831 | 53 | 112 | 9.0 | 12.0 | 0.00 | 0.00 | 0.00 | 80 | 1014.9 |
| 20260507183731 | 53 | 111 | 8.0 | 10.0 | 0.00 | 0.00 | 0.00 | 80 | 1014.9 |
| 20260507183631 | 53 | 106 | 9.0 | 12.0 | 0.00 | 0.00 | 0.00 | 80 | 1014.9 |
| 20260507183531 | 53 | 115 | 9.0 | 12.0 | 0.00 | 0.00 | 0.00 | 80 | 1014.8 |
| 20260507183431 | 53 | 114 | 9.0 | 12.0 | 0.00 | 0.00 | 0.00 | 80 | 1014.9 |
| 20260507183331 | 53 | 117 | 10.0 | 12.0 | 0.00 | 0.00 | 0.00 | 80 | 1014.8 |
| 20260507183231 | 53 | 105 | 10.0 | 13.0 | 0.00 | 0.00 | 0.00 | 80 | 1014.8 |
| 20260507183130 | 53 | 105 | 9.0 | 12.0 | 0.00 | 0.00 | 0.00 | 80 | 1014.8 |
| 20260507183030 | 53 | 107 | 8.0 | 12.0 | 0.00 | 0.00 | 0.00 | 80 | 1014.9 |
| 20260507182930 | 53 | 102 | 8.0 | 9.0 | 0.00 | 0.00 | 0.00 | 80 | 1014.8 |
| 20260507182830 | 53 | 103 | 8.0 | 12.0 | 0.00 | 0.00 | 0.00 | 80 | 1014.8 |
| 20260507182730 | 53 | 113 | 9.0 | 12.0 | 0.00 | 0.00 | 0.00 | 80 | 1014.8 |
| 20260507182630 | 53 | 120 | 10.0 | 12.0 | 0.00 | 0.00 | 0.00 | 80 | 1014.9 |
| 20260507182530 | 53 | 107 | 9.0 | 13.0 | 0.00 | 0.00 | 0.00 | 80 | 1014.9 |
| 20260507182430 | 53 | 116 | 9.0 | 12.0 | 0.00 | 0.00 | 0.00 | 80 | 1014.9 |
| 20260507182330 | 53 | 113 | 9.0 | 12.0 | 0.00 | 0.00 | 0.00 | 80 | 1014.9 |
| 20260507182230 | 53 | 115 | 9.0 | 12.0 | 0.00 | 0.00 | 0.00 | 80 | 1014.9 |
| 20260507182130 | 53 | 113 | 9.0 | 12.0 | 0.00 | 0.00 | 0.00 | 80 | 1014.9 |
| 20260507182030 | 53 | 117 | 7.0 | 10.0 | 0.00 | 0.00 | 0.00 | 80 | 1014.9 |
| 20260507181929 | 53 | 113 | 6.0 | 8.0 | 0.00 | 0.00 | 0.00 | 80 | 1014.9 |
| 20260507181829 | 53 | 127 | 7.0 | 9.0 | 0.00 | 0.00 | 0.00 | 80 | 1014.9 |
| 20260507181729 | 53 | 120 | 8.0 | 12.0 | 0.00 | 0.00 | 0.00 | 80 | 1014.9 |
| 20260507181629 | 53 | 120 | 9.0 | 12.0 | 0.00 | 0.00 | 0.00 | 80 | 1014.9 |
| 20260507181529 | 53 | 124 | 9.0 | 12.0 | 0.00 | 0.00 | 0.00 | 80 | 1014.9 |
| 20260507181429 | 53 | 122 | 9.0 | 13.0 | 0.00 | 0.00 | 0.00 | 80 | 1014.9 |
| 20260507181329 | 53 | 117 | 9.0 | 10.0 | 0.00 | 0.00 | 0.00 | 80 | 1014.9 |
| 20260507181229 | 53 | 116 | 8.0 | 12.0 | 0.00 | 0.00 | 0.00 | 80 | 1014.8 |
| 20260507181129 | 53 | 131 | 9.0 | 12.0 | 0.00 | 0.00 | 0.00 | 80 | 1014.8 |
| 20260507181029 | 53 | 121 | 8.0 | 12.0 | 0.00 | 0.00 | 0.00 | 80 | 1014.9 |
| 20260507180929 | 53 | 108 | 9.0 | 12.0 | 0.00 | 0.00 | 0.00 | 81 | 1014.9 |
| 20260507180829 | 53 | 121 | 9.0 | 12.0 | 0.00 | 0.00 | 0.00 | 81 | 1014.8 |
| 20260507180729 | 53 | 111 | 8.0 | 12.0 | 0.00 | 0.00 | 0.00 | 81 | 1014.8 |
| 20260507180629 | 53 | 120 | 10.0 | 12.0 | 0.00 | 0.00 | 0.00 | 80 | 1014.8 |
| 20260507180529 | 53 | 120 | 10.0 | 12.0 | 0.00 | 0.00 | 0.00 | 80 | 1014.8 |
| 20260507180428 | 53 | 112 | 9.0 | 12.0 | 0.00 | 0.00 | 0.00 | 80 | 1014.8 |
| 20260507180328 | 53 | 114 | 9.0 | 12.0 | 0.00 | 0.00 | 0.00 | 80 | 1014.8 |
| 20260507180229 | 53 | 123 | 10.0 | 12.0 | 0.00 | 0.00 | 0.00 | 80 | 1014.9 |
| 20260507180128 | 53 | 118 | 10.0 | 13.0 | 0.00 | 0.00 | 0.00 | 80 | 1014.9 |
| 20260507180028 | 53 | 112 | 9.0 | 12.0 | 0.00 | 0.00 | 0.00 | 80 | 1014.9 |
| 20260507175928 | 53 | 111 | 9.0 | 12.0 | 0.00 | 0.00 | 0.00 | 80 | 1014.9 |
| 20260507175828 | 53 | 113 | 8.0 | 12.0 | 0.00 | 0.00 | 0.00 | 81 | 1014.9 |
| 20260507175728 | 53 | 121 | 7.0 | 9.0 | 0.00 | 0.00 | 0.00 | 81 | 1014.9 |
| 20260507175628 | 53 | 135 | 7.0 | 9.0 | 0.00 | 0.00 | 0.00 | 81 | 1014.9 |
| 20260507175528 | 53 | 133 | 7.0 | 9.0 | 0.00 | 0.00 | 0.00 | 81 | 1014.9 |
| 20260507175428 | 53 | 126 | 8.0 | 10.0 | 0.00 | 0.00 | 0.00 | 81 | 1014.9 |
| 20260507175328 | 53 | 129 | 8.0 | 10.0 | 0.00 | 0.00 | 0.00 | 81 | 1014.9 |
| 20260507175228 | 53 | 132 | 8.0 | 12.0 | 0.00 | 0.00 | 0.00 | 81 | 1014.9 |
| 20260507175128 | 53 | 127 | 8.0 | 10.0 | 0.00 | 0.00 | 0.00 | 81 | 1014.9 |
| 20260507175027 | 53 | 118 | 8.0 | 12.0 | 0.00 | 0.00 | 0.00 | 81 | 1014.9 |
| 20260507174927 | 53 | 128 | 7.0 | 10.0 | 0.00 | 0.00 | 0.00 | 81 | 1014.9 |
| 20260507174827 | 53 | 128 | 7.0 | 10.0 | 0.00 | 0.00 | 0.00 | 81 | 1014.9 |
| 20260507174727 | 53 | 116 | 7.0 | 10.0 | 0.00 | 0.00 | 0.00 | 81 | 1014.9 |
| 20260507174627 | 53 | 110 | 6.0 | 10.0 | 0.00 | 0.00 | 0.00 | 81 | 1014.9 |
| 20260507174527 | 53 | 121 | 7.0 | 8.0 | 0.00 | 0.00 | 0.00 | 80 | 1014.9 |
| 20260507174427 | 53 | 130 | 9.0 | 12.0 | 0.00 | 0.00 | 0.00 | 80 | 1014.9 |
| 20260507174327 | 53 | 124 | 9.0 | 12.0 | 0.00 | 0.00 | 0.00 | 81 | 1014.9 |
| 20260507174227 | 53 | 134 | 7.0 | 12.0 | 0.00 | 0.00 | 0.00 | 81 | 1014.9 |
| 20260507174127 | 53 | 134 | 7.0 | 9.0 | 0.00 | 0.00 | 0.00 | 81 | 1014.9 |
| 20260507174027 | 53 | 140 | 8.0 | 12.0 | 0.00 | 0.00 | 0.00 | 81 | 1014.9 |
| 20260507173927 | 53 | 130 | 8.0 | 12.0 | 0.00 | 0.00 | 0.00 | 81 | 1014.9 |
| 20260507173827 | 53 | 122 | 7.0 | 9.0 | 0.00 | 0.00 | 0.00 | 81 | 1014.9 |
| 20260507173726 | 53 | 120 | 8.0 | 10.0 | 0.00 | 0.00 | 0.00 | 81 | 1014.9 |
| 20260507173626 | 53 | 130 | 8.0 | 10.0 | 0.00 | 0.00 | 0.00 | 80 | 1014.9 |
| 20260507173526 | 53 | 121 | 8.0 | 12.0 | 0.00 | 0.00 | 0.00 | 80 | 1014.9 |
| 20260507173426 | 54 | 108 | 9.0 | 12.0 | 0.00 | 0.00 | 0.00 | 81 | 1014.9 |
| 20260507173326 | 54 | 113 | 7.0 | 12.0 | 0.00 | 0.00 | 0.00 | 81 | 1015.0 |
| 20260507173226 | 54 | 131 | 7.0 | 9.0 | 0.00 | 0.00 | 0.00 | 81 | 1015.0 |
| 20260507173126 | 54 | 131 | 8.0 | 9.0 | 0.00 | 0.00 | 0.00 | 81 | 1015.0 |
| 20260507173026 | 54 | 131 | 7.0 | 10.0 | 0.00 | 0.00 | 0.00 | 81 | 1015.0 |
| 20260507172926 | 54 | 138 | 6.0 | 8.0 | 0.00 | 0.00 | 0.00 | 81 | 1015.0 |
| 20260507172826 | 54 | 134 | 6.0 | 8.0 | 0.00 | 0.00 | 0.00 | 81 | 1015.0 |
| 20260507172726 | 53 | 133 | 8.0 | 10.0 | 0.00 | 0.00 | 0.00 | 81 | 1015.0 |
| 20260507172626 | 53 | 117 | 8.0 | 12.0 | 0.00 | 0.00 | 0.00 | 81 | 1015.0 |
| 20260507172526 | 53 | 144 | 8.0 | 12.0 | 0.00 | 0.00 | 0.00 | 81 | 1015.0 |
| 20260507172426 | 53 | 139 | 8.0 | 12.0 | 0.00 | 0.00 | 0.00 | 81 | 1015.0 |
| 20260507172325 | 54 | 139 | 9.0 | 12.0 | 0.00 | 0.00 | 0.00 | 80 | 1015.0 |
| 20260507172225 | 54 | 127 | 9.0 | 12.0 | 0.00 | 0.00 | 0.00 | 81 | 1015.0 |
| 20260507172125 | 54 | 138 | 7.0 | 10.0 | 0.00 | 0.00 | 0.00 | 81 | 1015.0 |
| 20260507172025 | 54 | 143 | 6.0 | 9.0 | 0.00 | 0.00 | 0.00 | 81 | 1015.0 |
| 20260507171925 | 54 | 146 | 7.0 | 9.0 | 0.00 | 0.00 | 0.00 | 81 | 1015.0 |
| 20260507171825 | 53 | 155 | 7.0 | 9.0 | 0.00 | 0.00 | 0.00 | 81 | 1015.0 |
| 20260507171725 | 53 | 140 | 9.0 | 12.0 | 0.00 | 0.00 | 0.00 | 81 | 1014.9 |
| 20260507171625 | 53 | 123 | 8.0 | 12.0 | 0.00 | 0.00 | 0.00 | 80 | 1014.9 |
| 20260507171525 | 54 | 126 | 8.0 | 12.0 | 0.00 | 0.00 | 0.00 | 81 | 1015.0 |
| 20260507171425 | 53 | 127 | 7.0 | 10.0 | 0.00 | 0.00 | 0.00 | 81 | 1014.9 |
| 20260507171325 | 53 | 136 | 8.0 | 10.0 | 0.00 | 0.00 | 0.00 | 81 | 1015.0 |
| 20260507171225 | 53 | 134 | 7.0 | 12.0 | 0.00 | 0.00 | 0.00 | 82 | 1014.9 |
| 20260507171124 | 53 | 140 | 7.0 | 9.0 | 0.00 | 0.00 | 0.00 | 82 | 1015.0 |
| 20260507171024 | 53 | 129 | 8.0 | 12.0 | 0.00 | 0.00 | 0.00 | 82 | 1015.0 |
| 20260507170924 | 53 | 132 | 9.0 | 12.0 | 0.00 | 0.00 | 0.00 | 81 | 1015.0 |
| 20260507170824 | 53 | 117 | 10.0 | 13.0 | 0.00 | 0.00 | 0.00 | 82 | 1015.1 |
| 20260507170724 | 53 | 119 | 9.0 | 13.0 | 0.00 | 0.00 | 0.00 | 82 | 1015.0 |
| 20260507170624 | 53 | 124 | 8.0 | 13.0 | 0.00 | 0.00 | 0.00 | 83 | 1015.0 |
| 20260507170524 | 53 | 120 | 9.0 | 12.0 | 0.00 | 0.00 | 0.00 | 82 | 1015.1 |
| 20260507170424 | 53 | 130 | 9.0 | 13.0 | 0.00 | 0.00 | 0.00 | 82 | 1015.0 |
| 20260507170324 | 53 | 140 | 9.0 | 12.0 | 0.00 | 0.00 | 0.00 | 82 | 1015.0 |
| 20260507170224 | 53 | 120 | 10.0 | 12.0 | 0.00 | 0.00 | 0.00 | 82 | 1015.1 |
| 20260507170124 | 53 | 124 | 8.0 | 12.0 | 0.00 | 0.00 | 0.00 | 82 | 1015.0 |
| 20260507170024 | 53 | 142 | 9.0 | 12.0 | 0.00 | 0.00 | 0.00 | 82 | 1015.0 |
| 20260507165924 | 53 | 132 | 9.0 | 12.0 | 0.00 | 0.00 | 0.00 | 82 | 1015.1 |
| 20260507165824 | 53 | 133 | 10.0 | 14.0 | 0.00 | 0.00 | 0.00 | 82 | 1015.1 |
| 20260507165723 | 53 | 132 | 8.0 | 13.0 | 0.00 | 0.00 | 0.00 | 83 | 1015.0 |
| 20260507165623 | 53 | 132 | 8.0 | 12.0 | 0.00 | 0.00 | 0.00 | 82 | 1015.1 |
| 20260507165523 | 53 | 127 | 10.0 | 14.0 | 0.00 | 0.00 | 0.00 | 82 | 1015.1 |
| 20260507165423 | 53 | 125 | 10.0 | 14.0 | 0.00 | 0.00 | 0.00 | 82 | 1015.1 |
| 20260507165323 | 53 | 128 | 12.0 | 14.0 | 0.00 | 0.00 | 0.00 | 82 | 1015.1 |
| 20260507165223 | 53 | 130 | 10.0 | 14.0 | 0.00 | 0.00 | 0.00 | 82 | 1015.0 |
| 20260507165123 | 53 | 134 | 9.0 | 12.0 | 0.00 | 0.00 | 0.00 | 82 | 1015.0 |
| 20260507165023 | 53 | 114 | 10.0 | 13.0 | 0.00 | 0.00 | 0.00 | 82 | 1015.1 |
| 20260507164923 | 53 | 112 | 12.0 | 13.0 | 0.00 | 0.00 | 0.00 | 82 | 1015.1 |
| 20260507164823 | 53 | 123 | 12.0 | 14.0 | 0.00 | 0.00 | 0.00 | 81 | 1015.1 |
| 20260507164723 | 53 | 123 | 12.0 | 14.0 | 0.00 | 0.00 | 0.00 | 81 | 1015.1 |
| 20260507164623 | 53 | 122 | 12.0 | 13.0 | 0.00 | 0.00 | 0.00 | 81 | 1015.0 |
| 20260507164523 | 54 | 130 | 9.0 | 14.0 | 0.00 | 0.00 | 0.00 | 82 | 1015.0 |
| 20260507164423 | 54 | 128 | 9.0 | 10.0 | 0.00 | 0.00 | 0.00 | 82 | 1015.0 |
| 20260507164322 | 54 | 127 | 9.0 | 13.0 | 0.00 | 0.00 | 0.00 | 82 | 1015.0 |
| 20260507164222 | 54 | 127 | 9.0 | 10.0 | 0.00 | 0.00 | 0.00 | 82 | 1015.0 |
| 20260507164122 | 54 | 125 | 9.0 | 12.0 | 0.00 | 0.00 | 0.00 | 82 | 1015.0 |
| 20260507164022 | 54 | 122 | 8.0 | 12.0 | 0.00 | 0.00 | 0.00 | 82 | 1015.0 |
| 20260507163922 | 54 | 138 | 7.0 | 12.0 | 0.00 | 0.00 | 0.00 | 82 | 1015.0 |
| 20260507163822 | 54 | 107 | 8.0 | 10.0 | 0.00 | 0.00 | 0.00 | 82 | 1015.0 |
| 20260507163722 | 54 | 103 | 9.0 | 12.0 | 0.00 | 0.00 | 0.00 | 82 | 1015.0 |
| 20260507163622 | 54 | 129 | 9.0 | 12.0 | 0.00 | 0.00 | 0.00 | 82 | 1015.0 |
| 20260507163522 | 54 | 136 | 10.0 | 12.0 | 0.00 | 0.00 | 0.00 | 82 | 1015.0 |
| 20260507163422 | 54 | 126 | 12.0 | 14.0 | 0.00 | 0.00 | 0.00 | 81 | 1015.0 |
| 20260507163322 | 54 | 115 | 10.0 | 13.0 | 0.00 | 0.00 | 0.00 | 81 | 1015.0 |
| 20260507163222 | 54 | 111 | 12.0 | 14.0 | 0.00 | 0.00 | 0.00 | 81 | 1015.0 |
| 20260507163121 | 54 | 119 | 12.0 | 12.0 | 0.00 | 0.00 | 0.00 | 81 | 1015.0 |
| 20260507163021 | 54 | 113 | 9.0 | 13.0 | 0.00 | 0.00 | 0.00 | 82 | 1015.1 |
| 20260507162921 | 54 | 131 | 8.0 | 12.0 | 0.00 | 0.00 | 0.00 | 81 | 1015.0 |
| 20260507162821 | 54 | 110 | 10.0 | 12.0 | 0.00 | 0.00 | 0.00 | 81 | 1015.1 |
| 20260507162721 | 54 | 110 | 10.0 | 13.0 | 0.00 | 0.00 | 0.00 | 81 | 1015.1 |
| 20260507162621 | 54 | 122 | 8.0 | 14.0 | 0.00 | 0.00 | 0.00 | 81 | 1015.1 |
| 20260507162451 | 54 | 114 | 9.0 | 12.0 | 0.00 | 0.00 | 0.00 | 79 | 1015.1 |
| 20260507162351 | 54 | 122 | 10.0 | 13.0 | 0.00 | 0.00 | 0.00 | 80 | 1015.0 |
| 20260507162221 | 54 | 118 | 7.0 | 13.0 | 0.00 | 0.00 | 0.00 | 81 | 1015.1 |
| 20260507162051 | 55 | 148 | 7.0 | 10.0 | 0.00 | 0.00 | 0.00 | 81 | 1015.1 |
| 20260507161951 | 55 | 127 | 9.0 | 12.0 | 0.00 | 0.00 | 0.00 | 81 | 1015.1 |
| 20260507161851 | 55 | 118 | 8.0 | 12.0 | 0.00 | 0.00 | 0.00 | 81 | 1015.1 |
| 20260507161721 | 55 | 125 | 7.0 | 10.0 | 0.00 | 0.00 | 0.00 | 81 | 1015.1 |
| 20260507161621 | 54 | 147 | 7.0 | 9.0 | 0.00 | 0.00 | 0.00 | 81 | 1015.1 |
| 20260507161521 | 54 | 138 | 8.0 | 12.0 | 0.00 | 0.00 | 0.00 | 81 | 1015.1 |
| 20260507161351 | 54 | 145 | 7.0 | 10.0 | 0.00 | 0.00 | 0.00 | 81 | 1015.1 |
| 20260507161221 | 54 | 144 | 8.0 | 8.0 | 0.00 | 0.00 | 0.00 | 80 | 1015.2 |
| 20260507161051 | 55 | 143 | 7.0 | 12.0 | 0.00 | 0.00 | 0.00 | 81 | 1015.1 |
| 20260507160951 | 55 | 136 | 8.0 | 12.0 | 0.00 | 0.00 | 0.00 | 80 | 1015.2 |
| 20260507160821 | 55 | 139 | 8.0 | 12.0 | 0.00 | 0.00 | 0.00 | 80 | 1015.2 |
| 20260507160651 | 55 | 140 | 7.0 | 8.0 | 0.00 | 0.00 | 0.00 | 81 | 1015.1 |
| 20260507160551 | 54 | 145 | 6.0 | 12.0 | 0.00 | 0.00 | 0.00 | 81 | 1015.1 |
| 20260507160451 | 54 | 166 | 5.0 | 7.0 | 0.00 | 0.00 | 0.00 | 81 | 1015.1 |
| 20260507160351 | 54 | 144 | 7.0 | 8.0 | 0.00 | 0.00 | 0.00 | 81 | 1015.2 |
| 20260507160251 | 54 | 119 | 8.0 | 12.0 | 0.00 | 0.00 | 0.00 | 81 | 1015.2 |
| 20260507160151 | 54 | 122 | 9.0 | 12.0 | 0.00 | 0.00 | 0.00 | 81 | 1015.2 |
| 20260507160051 | 54 | 137 | 8.0 | 12.0 | 0.00 | 0.00 | 0.00 | 81 | 1015.2 |
| 20260507155921 | 54 | 135 | 8.0 | 10.0 | 0.00 | 0.00 | 0.00 | 82 | 1015.1 |
| 20260507155751 | 54 | 132 | 10.0 | 13.0 | 0.00 | 0.00 | 0.00 | 80 | 1015.1 |
| 20260507155651 | 54 | 114 | 10.0 | 13.0 | 0.00 | 0.00 | 0.00 | 81 | 1015.1 |
| 20260507155551 | 54 | 126 | 9.0 | 14.0 | 0.00 | 0.00 | 0.00 | 81 | 1015.1 |
| 20260507155451 | 54 | 128 | 8.0 | 12.0 | 0.00 | 0.00 | 0.00 | 81 | 1015.2 |
| 20260507155351 | 54 | 143 | 8.0 | 10.0 | 0.00 | 0.00 | 0.00 | 81 | 1015.2 |
| 20260507155251 | 54 | 136 | 8.0 | 12.0 | 0.00 | 0.00 | 0.00 | 80 | 1015.2 |
| 20260507155121 | 54 | 129 | 9.0 | 12.0 | 0.00 | 0.00 | 0.00 | 80 | 1015.2 |
| 20260507154951 | 54 | 116 | 8.0 | 13.0 | 0.00 | 0.00 | 0.00 | 81 | 1015.2 |
| 20260507154821 | 54 | 126 | 8.0 | 12.0 | 0.00 | 0.00 | 0.00 | 81 | 1015.2 |
| 20260507154651 | 54 | 132 | 9.0 | 12.0 | 0.00 | 0.00 | 0.00 | 80 | 1015.2 |
| 20260507154521 | 54 | 142 | 9.0 | 10.0 | 0.00 | 0.00 | 0.00 | 80 | 1015.2 |
| 20260507154421 | 54 | 142 | 8.0 | 10.0 | 0.00 | 0.00 | 0.00 | 80 | 1015.2 |
| 20260507154251 | 55 | 124 | 10.0 | 12.0 | 0.00 | 0.00 | 0.00 | 78 | 1015.2 |
| 20260507154121 | 55 | 129 | 8.0 | 12.0 | 0.00 | 0.00 | 0.00 | 79 | 1015.3 |
| 20260507154021 | 55 | 149 | 6.0 | 12.0 | 0.00 | 0.00 | 0.00 | 79 | 1015.3 |
| 20260507153921 | 55 | 156 | 7.0 | 8.0 | 0.00 | 0.00 | 0.00 | 79 | 1015.2 |
| 20260507153751 | 55 | 144 | 7.0 | 9.0 | 0.00 | 0.00 | 0.00 | 79 | 1015.2 |
| 20260507153651 | 55 | 165 | 7.0 | 10.0 | 0.00 | 0.00 | 0.00 | 79 | 1015.2 |
| 20260507153551 | 55 | 147 | 6.0 | 10.0 | 0.00 | 0.00 | 0.00 | 80 | 1015.3 |
| 20260507153421 | 55 | 144 | 7.0 | 8.0 | 0.00 | 0.00 | 0.00 | 80 | 1015.3 |
| 20260507153251 | 55 | 127 | 7.0 | 10.0 | 0.00 | 0.00 | 0.00 | 79 | 1015.3 |
| 20260507153151 | 55 | 142 | 8.0 | 10.0 | 0.00 | 0.00 | 0.00 | 79 | 1015.3 |
| 20260507153051 | 55 | 153 | 7.0 | 12.0 | 0.00 | 0.00 | 0.00 | 80 | 1015.3 |
| 20260507152921 | 55 | 156 | 8.0 | 10.0 | 0.00 | 0.00 | 0.00 | 80 | 1015.3 |
| 20260507152821 | 55 | 149 | 8.0 | 12.0 | 0.00 | 0.00 | 0.00 | 80 | 1015.3 |
| 20260507152651 | 55 | 123 | 7.0 | 13.0 | 0.00 | 0.00 | 0.00 | 80 | 1015.3 |
| 20260507152521 | 54 | 144 | 8.0 | 10.0 | 0.00 | 0.00 | 0.00 | 79 | 1015.3 |
| 20260507152351 | 55 | 133 | 9.0 | 12.0 | 0.00 | 0.00 | 0.00 | 78 | 1015.3 |
| 20260507152251 | 55 | 121 | 8.0 | 12.0 | 0.00 | 0.00 | 0.00 | 79 | 1015.3 |
| 20260507152151 | 55 | 136 | 8.0 | 9.0 | 0.00 | 0.00 | 0.00 | 79 | 1015.3 |
| 20260507152021 | 55 | 145 | 8.0 | 12.0 | 0.00 | 0.00 | 0.00 | 79 | 1015.3 |
| 20260507151851 | 55 | 144 | 7.0 | 10.0 | 0.00 | 0.00 | 0.00 | 79 | 1015.3 |
| 20260507151751 | 55 | 123 | 8.0 | 10.0 | 0.00 | 0.00 | 0.00 | 79 | 1015.3 |
| 20260507151651 | 55 | 132 | 8.0 | 10.0 | 0.00 | 0.00 | 0.00 | 80 | 1015.4 |
| 20260507151551 | 55 | 129 | 6.0 | 10.0 | 0.00 | 0.00 | 0.00 | 80 | 1015.4 |
| 20260507151451 | 54 | 149 | 7.0 | 12.0 | 0.00 | 0.00 | 0.00 | 80 | 1015.4 |
| 20260507151321 | 54 | 154 | 7.0 | 9.0 | 0.00 | 0.00 | 0.00 | 80 | 1015.4 |
| 20260507151221 | 54 | 123 | 8.0 | 12.0 | 0.00 | 0.00 | 0.00 | 80 | 1015.4 |
| 20260507151051 | 54 | 134 | 9.0 | 10.0 | 0.00 | 0.00 | 0.00 | 79 | 1015.4 |
| 20260507150921 | 54 | 124 | 8.0 | 12.0 | 0.00 | 0.00 | 0.00 | 79 | 1015.4 |
| 20260507150821 | 54 | 133 | 7.0 | 10.0 | 0.00 | 0.00 | 0.00 | 79 | 1015.4 |
| 20260507150721 | 54 | 113 | 8.0 | 10.0 | 0.00 | 0.00 | 0.00 | 79 | 1015.4 |
| 20260507150621 | 54 | 133 | 7.0 | 9.0 | 0.00 | 0.00 | 0.00 | 79 | 1015.4 |
| 20260507150521 | 54 | 119 | 8.0 | 10.0 | 0.00 | 0.00 | 0.00 | 79 | 1015.4 |
| 20260507150351 | 54 | 138 | 6.0 | 12.0 | 0.00 | 0.00 | 0.00 | 79 | 1015.4 |
| 20260507150251 | 54 | 143 | 8.0 | 12.0 | 0.00 | 0.00 | 0.00 | 78 | 1015.4 |
| 20260507150121 | 55 | 136 | 8.0 | 10.0 | 0.00 | 0.00 | 0.00 | 78 | 1015.4 |
| 20260507150021 | 55 | 133 | 9.0 | 12.0 | 0.00 | 0.00 | 0.00 | 77 | 1015.4 |
| 20260507145851 | 55 | 137 | 7.0 | 10.0 | 0.00 | 0.00 | 0.00 | 78 | 1015.5 |
| 20260507145751 | 55 | 133 | 9.0 | 12.0 | 0.00 | 0.00 | 0.00 | 78 | 1015.5 |
| 20260507145651 | 55 | 130 | 6.0 | 12.0 | 0.00 | 0.00 | 0.00 | 78 | 1015.5 |
| 20260507145551 | 55 | 151 | 7.0 | 8.0 | 0.00 | 0.00 | 0.00 | 77 | 1015.5 |
| 20260507145451 | 55 | 145 | 7.0 | 9.0 | 0.00 | 0.00 | 0.00 | 76 | 1015.4 |
| 20260507145351 | 55 | 132 | 8.0 | 10.0 | 0.00 | 0.00 | 0.00 | 76 | 1015.5 |
| 20260507145250 | 56 | 138 | 6.0 | 10.0 | 0.00 | 0.00 | 0.00 | 77 | 1015.5 |
| 20260507145150 | 55 | 158 | 6.0 | 6.0 | 0.00 | 0.00 | 0.00 | 76 | 1015.5 |
| 20260507145050 | 56 | 147 | 7.0 | 9.0 | 0.00 | 0.00 | 0.00 | 76 | 1015.4 |
| 20260507144950 | 56 | 138 | 8.0 | 8.0 | 0.00 | 0.00 | 0.00 | 76 | 1015.5 |
| 20260507144850 | 56 | 157 | 7.0 | 12.0 | 0.00 | 0.00 | 0.00 | 76 | 1015.5 |
| 20260507144750 | 56 | 154 | 8.0 | 9.0 | 0.00 | 0.00 | 0.00 | 76 | 1015.5 |
| 20260507144650 | 56 | 165 | 7.0 | 12.0 | 0.00 | 0.00 | 0.00 | 76 | 1015.5 |
| 20260507144550 | 56 | 169 | 7.0 | 12.0 | 0.00 | 0.00 | 0.00 | 76 | 1015.5 |
| 20260507144450 | 56 | 159 | 7.0 | 9.0 | 0.00 | 0.00 | 0.00 | 76 | 1015.5 |
| 20260507144350 | 56 | 150 | 6.0 | 9.0 | 0.00 | 0.00 | 0.00 | 76 | 1015.5 |
| 20260507144250 | 56 | 139 | 5.0 | 8.0 | 0.00 | 0.00 | 0.00 | 76 | 1015.5 |
| 20260507144150 | 56 | 174 | 8.0 | 9.0 | 0.00 | 0.00 | 0.00 | 76 | 1015.5 |
| 20260507144050 | 56 | 157 | 6.0 | 10.0 | 0.00 | 0.00 | 0.00 | 75 | 1015.5 |
| 20260507143950 | 56 | 153 | 8.0 | 9.0 | 0.00 | 0.00 | 0.00 | 74 | 1015.5 |
| 20260507143849 | 57 | 120 | 7.0 | 10.0 | 0.00 | 0.00 | 0.00 | 74 | 1015.6 |
| 20260507143749 | 57 | 143 | 5.0 | 8.0 | 0.00 | 0.00 | 0.00 | 75 | 1015.6 |
| 20260507143649 | 57 | 199 | 6.0 | 6.0 | 0.00 | 0.00 | 0.00 | 75 | 1015.6 |
| 20260507143549 | 57 | 175 | 6.0 | 10.0 | 0.00 | 0.00 | 0.00 | 76 | 1015.6 |
| 20260507143449 | 57 | 157 | 6.0 | 8.0 | 0.00 | 0.00 | 0.00 | 76 | 1015.6 |
| 20260507143349 | 57 | 203 | 5.0 | 8.0 | 0.00 | 0.00 | 0.00 | 77 | 1015.7 |
| 20260507143249 | 56 | 190 | 6.0 | 5.0 | 0.00 | 0.00 | 0.00 | 76 | 1015.7 |
| 20260507143149 | 56 | 147 | 6.0 | 10.0 | 0.00 | 0.00 | 0.00 | 77 | 1015.6 |
| 20260507143049 | 56 | 156 | 5.0 | 8.0 | 0.00 | 0.00 | 0.00 | 76 | 1015.6 |
| 20260507142949 | 57 | 138 | 8.0 | 10.0 | 0.00 | 0.00 | 0.00 | 75 | 1015.7 |
| 20260507142849 | 57 | 160 | 8.0 | 10.0 | 0.00 | 0.00 | 0.00 | 76 | 1015.6 |
| 20260507142749 | 57 | 165 | 7.0 | 10.0 | 0.00 | 0.00 | 0.00 | 76 | 1015.7 |
| 20260507142649 | 57 | 160 | 6.0 | 9.0 | 0.00 | 0.00 | 0.00 | 76 | 1015.6 |
| 20260507142549 | 57 | 169 | 8.0 | 10.0 | 0.00 | 0.00 | 0.00 | 75 | 1015.7 |
| 20260507142449 | 57 | 140 | 8.0 | 12.0 | 0.00 | 0.00 | 0.00 | 76 | 1015.7 |
| 20260507142349 | 57 | 129 | 7.0 | 13.0 | 0.00 | 0.00 | 0.00 | 76 | 1015.7 |
| 20260507142249 | 57 | 159 | 7.0 | 9.0 | 0.00 | 0.00 | 0.00 | 76 | 1015.7 |
| 20260507142149 | 57 | 175 | 7.0 | 9.0 | 0.00 | 0.00 | 0.00 | 76 | 1015.7 |
| 20260507142048 | 57 | 172 | 7.0 | 9.0 | 0.00 | 0.00 | 0.00 | 76 | 1015.7 |
| 20260507141948 | 57 | 169 | 7.0 | 10.0 | 0.00 | 0.00 | 0.00 | 77 | 1015.7 |
| 20260507141848 | 57 | 167 | 6.0 | 9.0 | 0.00 | 0.00 | 0.00 | 77 | 1015.7 |
| 20260507141748 | 57 | 163 | 7.0 | 9.0 | 0.00 | 0.00 | 0.00 | 77 | 1015.7 |
| 20260507141618 | 57 | 128 | 7.0 | 10.0 | 0.00 | 0.00 | 0.00 | 77 | 1015.7 |
| 20260507141518 | 57 | 144 | 7.0 | 9.0 | 0.00 | 0.00 | 0.00 | 76 | 1015.7 |
| 20260507141418 | 57 | 149 | 7.0 | 12.0 | 0.00 | 0.00 | 0.00 | 76 | 1015.7 |
| 20260507141318 | 57 | 152 | 8.0 | 9.0 | 0.00 | 0.00 | 0.00 | 76 | 1015.7 |
| 20260507141218 | 57 | 161 | 6.0 | 12.0 | 0.00 | 0.00 | 0.00 | 77 | 1015.7 |
| 20260507141118 | 57 | 177 | 5.0 | 8.0 | 0.00 | 0.00 | 0.00 | 77 | 1015.8 |
| 20260507141018 | 57 | 173 | 3.0 | 7.0 | 0.00 | 0.00 | 0.00 | 78 | 1015.8 |
| 20260507140918 | 56 | 170 | 6.0 | 7.0 | 0.00 | 0.00 | 0.00 | 78 | 1015.8 |
| 20260507140818 | 56 | 163 | 7.0 | 9.0 | 0.00 | 0.00 | 0.00 | 77 | 1015.8 |
| 20260507140718 | 56 | 152 | 8.0 | 9.0 | 0.00 | 0.00 | 0.00 | 78 | 1015.8 |
| 20260507140618 | 56 | 162 | 7.0 | 12.0 | 0.00 | 0.00 | 0.00 | 78 | 1015.8 |
| 20260507140518 | 56 | 154 | 7.0 | 8.0 | 0.00 | 0.00 | 0.00 | 77 | 1015.9 |
| 20260507140418 | 56 | 152 | 8.0 | 10.0 | 0.00 | 0.00 | 0.00 | 77 | 1015.9 |
| 20260507140318 | 56 | 164 | 7.0 | 12.0 | 0.00 | 0.00 | 0.00 | 77 | 1015.9 |
| 20260507140217 | 56 | 147 | 6.0 | 8.0 | 0.00 | 0.00 | 0.00 | 77 | 1015.9 |
| 20260507140117 | 56 | 166 | 7.0 | 10.0 | 0.00 | 0.00 | 0.00 | 77 | 1015.9 |
| 20260507140017 | 56 | 140 | 8.0 | 9.0 | 0.00 | 0.00 | 0.00 | 76 | 1015.8 |
| 20260507135917 | 57 | 136 | 7.0 | 10.0 | 0.00 | 0.00 | 0.00 | 77 | 1015.9 |
| 20260507135817 | 57 | 160 | 6.0 | 10.0 | 0.00 | 0.00 | 0.00 | 77 | 1015.8 |
| 20260507135717 | 56 | 177 | 6.0 | 8.0 | 0.00 | 0.00 | 0.00 | 77 | 1015.8 |
| 20260507135617 | 56 | 172 | 7.0 | 12.0 | 0.00 | 0.00 | 0.00 | 76 | 1015.9 |
| 20260507135517 | 56 | 147 | 5.0 | 9.0 | 0.00 | 0.00 | 0.00 | 77 | 1015.9 |
| 20260507135417 | 56 | 194 | 7.0 | 9.0 | 0.00 | 0.00 | 0.00 | 76 | 1015.9 |
| 20260507135317 | 56 | 161 | 8.0 | 12.0 | 0.00 | 0.00 | 0.00 | 76 | 1015.9 |
| 20260507135217 | 56 | 167 | 8.0 | 12.0 | 0.00 | 0.00 | 0.00 | 76 | 1015.9 |
| 20260507135117 | 56 | 156 | 7.0 | 10.0 | 0.00 | 0.00 | 0.00 | 76 | 1015.9 |
| 20260507135017 | 57 | 157 | 8.0 | 9.0 | 0.00 | 0.00 | 0.00 | 76 | 1015.9 |
| 20260507134917 | 56 | 163 | 6.0 | 14.0 | 0.00 | 0.00 | 0.00 | 76 | 1015.9 |
| 20260507134817 | 56 | 178 | 6.0 | 8.0 | 0.00 | 0.00 | 0.00 | 76 | 1015.9 |
| 20260507134717 | 56 | 167 | 7.0 | 12.0 | 0.00 | 0.00 | 0.00 | 76 | 1015.9 |
| 20260507134617 | 56 | 168 | 8.0 | 12.0 | 0.00 | 0.00 | 0.00 | 76 | 1015.9 |
| 20260507134516 | 56 | 164 | 8.0 | 10.0 | 0.00 | 0.00 | 0.00 | 77 | 1015.9 |
| 20260507134416 | 56 | 190 | 7.0 | 13.0 | 0.00 | 0.00 | 0.00 | 77 | 1016.0 |
| 20260507134316 | 56 | 165 | 8.0 | 9.0 | 0.00 | 0.00 | 0.00 | 77 | 1016.0 |
| 20260507134216 | 56 | 146 | 8.0 | 12.0 | 0.00 | 0.00 | 0.00 | 77 | 1015.9 |
| 20260507134116 | 56 | 164 | 7.0 | 9.0 | 0.00 | 0.00 | 0.00 | 77 | 1015.9 |
| 20260507134016 | 56 | 167 | 7.0 | 9.0 | 0.00 | 0.00 | 0.00 | 76 | 1016.0 |
| 20260507133916 | 56 | 160 | 7.0 | 10.0 | 0.00 | 0.00 | 0.00 | 76 | 1015.9 |
| 20260507133816 | 56 | 166 | 8.0 | 12.0 | 0.00 | 0.00 | 0.00 | 76 | 1015.9 |
| 20260507133716 | 56 | 173 | 8.0 | 12.0 | 0.00 | 0.00 | 0.00 | 77 | 1015.9 |
| 20260507133616 | 56 | 161 | 8.0 | 12.0 | 0.00 | 0.00 | 0.00 | 77 | 1015.9 |
| 20260507133516 | 56 | 180 | 5.0 | 9.0 | 0.00 | 0.00 | 0.00 | 78 | 1015.9 |
| 20260507133416 | 56 | 177 | 7.0 | 9.0 | 0.00 | 0.00 | 0.00 | 78 | 1015.9 |
| 20260507133316 | 56 | 179 | 6.0 | 10.0 | 0.00 | 0.00 | 0.00 | 79 | 1016.0 |
| 20260507133216 | 56 | 198 | 8.0 | 10.0 | 0.00 | 0.00 | 0.00 | 78 | 1015.9 |
| 20260507133116 | 56 | 124 | 8.0 | 12.0 | 0.00 | 0.00 | 0.00 | 78 | 1016.0 |
| 20260507133016 | 56 | 156 | 8.0 | 12.0 | 0.00 | 0.00 | 0.00 | 78 | 1016.0 |
| 20260507132916 | 56 | 146 | 8.0 | 12.0 | 0.00 | 0.00 | 0.00 | 78 | 1016.0 |
| 20260507132816 | 56 | 160 | 7.0 | 10.0 | 0.00 | 0.00 | 0.00 | 78 | 1016.0 |
| 20260507132646 | 56 | 144 | 7.0 | 13.0 | 0.00 | 0.00 | 0.00 | 78 | 1016.0 |
| 20260507132546 | 56 | 143 | 7.0 | 8.0 | 0.00 | 0.00 | 0.00 | 77 | 1016.0 |
| 20260507132446 | 56 | 139 | 8.0 | 10.0 | 0.00 | 0.00 | 0.00 | 77 | 1016.0 |
| 20260507132346 | 56 | 178 | 7.0 | 10.0 | 0.00 | 0.00 | 0.00 | 78 | 1016.0 |
| 20260507132246 | 56 | 171 | 7.0 | 9.0 | 0.00 | 0.00 | 0.00 | 78 | 1016.0 |
| 20260507132146 | 55 | 173 | 8.0 | 9.0 | 0.00 | 0.00 | 0.00 | 77 | 1016.0 |
| 20260507132016 | 56 | 136 | 8.0 | 10.0 | 0.00 | 0.00 | 0.00 | 76 | 1016.0 |
| 20260507131916 | 56 | 135 | 9.0 | 10.0 | 0.00 | 0.00 | 0.00 | 77 | 1016.0 |
| 20260507131816 | 56 | 139 | 8.0 | 14.0 | 0.00 | 0.00 | 0.00 | 76 | 1016.0 |
| 20260507131716 | 56 | 133 | 6.0 | 10.0 | 0.00 | 0.00 | 0.00 | 77 | 1016.0 |
| 20260507131546 | 56 | 170 | 6.0 | 9.0 | 0.00 | 0.00 | 0.00 | 77 | 1016.1 |
| 20260507131446 | 56 | 164 | 6.0 | 9.0 | 0.00 | 0.00 | 0.00 | 78 | 1016.1 |
| 20260507131316 | 56 | 169 | 6.0 | 9.0 | 0.00 | 0.00 | 0.00 | 78 | 1016.1 |
| 20260507131216 | 56 | 155 | 8.0 | 12.0 | 0.00 | 0.00 | 0.00 | 77 | 1016.1 |
| 20260507131046 | 56 | 152 | 7.0 | 12.0 | 0.00 | 0.00 | 0.00 | 77 | 1016.1 |
| 20260507130916 | 56 | 180 | 5.0 | 10.0 | 0.00 | 0.00 | 0.00 | 77 | 1016.1 |
| 20260507130746 | 56 | 148 | 8.0 | 10.0 | 0.00 | 0.00 | 0.00 | 76 | 1016.1 |
| 20260507130646 | 56 | 167 | 7.0 | 12.0 | 0.00 | 0.00 | 0.00 | 77 | 1016.1 |
| 20260507130546 | 56 | 156 | 7.0 | 8.0 | 0.00 | 0.00 | 0.00 | 77 | 1016.1 |
| 20260507130446 | 56 | 156 | 8.0 | 9.0 | 0.00 | 0.00 | 0.00 | 76 | 1016.1 |
| 20260507130346 | 56 | 131 | 7.0 | 12.0 | 0.00 | 0.00 | 0.00 | 77 | 1016.0 |
| 20260507130216 | 56 | 149 | 6.0 | 9.0 | 0.00 | 0.00 | 0.00 | 77 | 1016.1 |
| 20260507130116 | 56 | 144 | 7.0 | 10.0 | 0.00 | 0.00 | 0.00 | 76 | 1016.1 |
| 20260507130016 | 56 | 153 | 7.0 | 10.0 | 0.00 | 0.00 | 0.00 | 77 | 1016.1 |
| 20260507125916 | 56 | 184 | 6.0 | 7.0 | 0.00 | 0.00 | 0.00 | 77 | 1016.1 |
| 20260507125816 | 56 | 170 | 7.0 | 7.0 | 0.00 | 0.00 | 0.00 | 76 | 1016.1 |
| 20260507125716 | 56 | 166 | 10.0 | 12.0 | 0.00 | 0.00 | 0.00 | 76 | 1016.1 |
| 20260507125546 | 56 | 161 | 6.0 | 9.0 | 0.00 | 0.00 | 0.00 | 76 | 1016.1 |
| 20260507125446 | 56 | 163 | 7.0 | 9.0 | 0.00 | 0.00 | 0.00 | 76 | 1016.1 |
| 20260507125316 | 56 | 155 | 8.0 | 10.0 | 0.00 | 0.00 | 0.00 | 77 | 1016.1 |
| 20260507125216 | 56 | 167 | 7.0 | 12.0 | 0.00 | 0.00 | 0.00 | 78 | 1016.1 |
| 20260507125046 | 56 | 156 | 6.0 | 9.0 | 0.00 | 0.00 | 0.00 | 78 | 1016.1 |
| 20260507124916 | 55 | 176 | 7.0 | 9.0 | 0.00 | 0.00 | 0.00 | 78 | 1016.1 |
| 20260507124746 | 55 | 149 | 8.0 | 13.0 | 0.00 | 0.00 | 0.00 | 78 | 1016.2 |
| 20260507124646 | 55 | 157 | 7.0 | 10.0 | 0.00 | 0.00 | 0.00 | 77 | 1016.1 |
| 20260507124546 | 55 | 149 | 8.0 | 12.0 | 0.00 | 0.00 | 0.00 | 77 | 1016.1 |
| 20260507124446 | 55 | 157 | 8.0 | 12.0 | 0.00 | 0.00 | 0.00 | 77 | 1016.2 |
| 20260507124346 | 56 | 146 | 8.0 | 9.0 | 0.00 | 0.00 | 0.00 | 77 | 1016.2 |
| 20260507124216 | 56 | 131 | 7.0 | 12.0 | 0.00 | 0.00 | 0.00 | 77 | 1016.2 |
| 20260507124116 | 56 | 157 | 8.0 | 10.0 | 0.00 | 0.00 | 0.00 | 77 | 1016.2 |
| 20260507123946 | 56 | 175 | 7.0 | 12.0 | 0.00 | 0.00 | 0.00 | 77 | 1016.2 |
| 20260507123846 | 56 | 146 | 8.0 | 10.0 | 0.00 | 0.00 | 0.00 | 76 | 1016.2 |
| 20260507123746 | 56 | 131 | 8.0 | 12.0 | 0.00 | 0.00 | 0.00 | 76 | 1016.2 |
| 20260507123616 | 56 | 153 | 7.0 | 10.0 | 0.00 | 0.00 | 0.00 | 76 | 1016.2 |
| 20260507123516 | 56 | 161 | 7.0 | 9.0 | 0.00 | 0.00 | 0.00 | 76 | 1016.2 |
| 20260507123346 | 56 | 151 | 7.0 | 9.0 | 0.00 | 0.00 | 0.00 | 76 | 1016.2 |
| 20260507123216 | 56 | 160 | 7.0 | 9.0 | 0.00 | 0.00 | 0.00 | 76 | 1016.2 |
| 20260507123046 | 56 | 157 | 6.0 | 13.0 | 0.00 | 0.00 | 0.00 | 76 | 1016.2 |
| 20260507122916 | 56 | 159 | 7.0 | 8.0 | 0.00 | 0.00 | 0.00 | 76 | 1016.1 |
| 20260507122816 | 56 | 162 | 8.0 | 12.0 | 0.00 | 0.00 | 0.00 | 76 | 1016.2 |
| 20260507122716 | 56 | 170 | 7.0 | 12.0 | 0.00 | 0.00 | 0.00 | 76 | 1016.1 |
| 20260507122616 | 56 | 185 | 6.0 | 9.0 | 0.00 | 0.00 | 0.00 | 77 | 1016.2 |
| 20260507122446 | 56 | 194 | 7.0 | 8.0 | 0.00 | 0.00 | 0.00 | 76 | 1016.2 |
| 20260507122346 | 56 | 143 | 7.0 | 10.0 | 0.00 | 0.00 | 0.00 | 77 | 1016.2 |
| 20260507122216 | 56 | 149 | 7.0 | 8.0 | 0.00 | 0.00 | 0.00 | 77 | 1016.2 |
| 20260507122116 | 56 | 144 | 5.0 | 8.0 | 0.00 | 0.00 | 0.00 | 77 | 1016.2 |
| 20260507122016 | 56 | 205 | 6.0 | 7.0 | 0.00 | 0.00 | 0.00 | 77 | 1016.2 |
| 20260507121916 | 56 | 189 | 6.0 | 10.0 | 0.00 | 0.00 | 0.00 | 78 | 1016.2 |
| 20260507121746 | 56 | 132 | 7.0 | 12.0 | 0.00 | 0.00 | 0.00 | 77 | 1016.2 |
| 20260507121646 | 56 | 144 | 8.0 | 12.0 | 0.00 | 0.00 | 0.00 | 77 | 1016.2 |
| 20260507121516 | 56 | 145 | 6.0 | 12.0 | 0.00 | 0.00 | 0.00 | 78 | 1016.2 |
| 20260507121416 | 56 | 164 | 6.0 | 10.0 | 0.00 | 0.00 | 0.00 | 78 | 1016.2 |
| 20260507121316 | 56 | 174 | 7.0 | 8.0 | 0.00 | 0.00 | 0.00 | 77 | 1016.2 |
| 20260507121216 | 56 | 150 | 8.0 | 10.0 | 0.00 | 0.00 | 0.00 | 77 | 1016.2 |
| 20260507121046 | 56 | 157 | 7.0 | 10.0 | 0.00 | 0.00 | 0.00 | 78 | 1016.2 |
| 20260507120916 | 56 | 167 | 7.0 | 12.0 | 0.00 | 0.00 | 0.00 | 77 | 1016.2 |
| 20260507120816 | 56 | 154 | 7.0 | 9.0 | 0.00 | 0.00 | 0.00 | 78 | 1016.3 |
| 20260507120646 | 56 | 136 | 6.0 | 12.0 | 0.00 | 0.00 | 0.00 | 78 | 1016.2 |
| 20260507120546 | 56 | 154 | 7.0 | 8.0 | 0.00 | 0.00 | 0.00 | 78 | 1016.2 |
| 20260507120416 | 56 | 175 | 6.0 | 8.0 | 0.00 | 0.00 | 0.00 | 78 | 1016.2 |
| 20260507120246 | 56 | 136 | 8.0 | 12.0 | 0.00 | 0.00 | 0.00 | 77 | 1016.2 |
| 20260507120146 | 56 | 136 | 8.0 | 12.0 | 0.00 | 0.00 | 0.00 | 76 | 1016.2 |
| 20260507120016 | 56 | 142 | 8.0 | 12.0 | 0.00 | 0.00 | 0.00 | 75 | 1016.2 |
| 20260507115846 | 57 | 143 | 6.0 | 12.0 | 0.00 | 0.00 | 0.00 | 76 | 1016.2 |
| 20260507115746 | 57 | 221 | 6.0 | 9.0 | 0.00 | 0.00 | 0.00 | 77 | 1016.2 |
| 20260507115646 | 57 | 172 | 5.0 | 7.0 | 0.00 | 0.00 | 0.00 | 77 | 1016.2 |
| 20260507115516 | 56 | 179 | 7.0 | 6.0 | 0.00 | 0.00 | 0.00 | 76 | 1016.2 |
| 20260507115416 | 57 | 154 | 8.0 | 12.0 | 0.00 | 0.00 | 0.00 | 76 | 1016.2 |
| 20260507115316 | 57 | 138 | 6.0 | 10.0 | 0.00 | 0.00 | 0.00 | 76 | 1016.3 |
| 20260507115146 | 57 | 164 | 8.0 | 12.0 | 0.00 | 0.00 | 0.00 | 76 | 1016.3 |
| 20260507115046 | 57 | 159 | 8.0 | 12.0 | 0.00 | 0.00 | 0.00 | 75 | 1016.3 |
| 20260507114916 | 57 | 139 | 6.0 | 12.0 | 0.00 | 0.00 | 0.00 | 76 | 1016.3 |
| 20260507114746 | 57 | 196 | 7.0 | 9.0 | 0.00 | 0.00 | 0.00 | 76 | 1016.3 |
| 20260507114646 | 57 | 198 | 7.0 | 9.0 | 0.00 | 0.00 | 0.00 | 76 | 1016.3 |
| 20260507114516 | 56 | 207 | 7.0 | 9.0 | 0.00 | 0.00 | 0.00 | 76 | 1016.3 |
| 20260507114415 | 57 | 167 | 9.0 | 10.0 | 0.00 | 0.00 | 0.00 | 75 | 1016.3 |
| 20260507114315 | 57 | 165 | 9.0 | 12.0 | 0.00 | 0.00 | 0.00 | 76 | 1016.3 |
| 20260507114145 | 57 | 175 | 6.0 | 10.0 | 0.00 | 0.00 | 0.00 | 77 | 1016.3 |
| 20260507114044 | 57 | 195 | 7.0 | 8.0 | 0.00 | 0.00 | 0.00 | 76 | 1016.3 |
| 20260507113944 | 57 | 150 | 8.0 | 12.0 | 0.00 | 0.00 | 0.00 | 76 | 1016.3 |
| 20260507113844 | 57 | 158 | 7.0 | 10.0 | 0.00 | 0.00 | 0.00 | 76 | 1016.3 |
| 20260507113744 | 57 | 174 | 6.0 | 12.0 | 0.00 | 0.00 | 0.00 | 76 | 1016.3 |
| 20260507113644 | 57 | 195 | 6.0 | 8.0 | 0.00 | 0.00 | 0.00 | 76 | 1016.3 |
| 20260507113514 | 57 | 186 | 7.0 | 10.0 | 0.00 | 0.00 | 0.00 | 76 | 1016.3 |
| 20260507113414 | 57 | 199 | 8.0 | 10.0 | 0.00 | 0.00 | 0.00 | 76 | 1016.3 |
| 20260507113314 | 57 | 146 | 7.0 | 10.0 | 0.00 | 0.00 | 0.00 | 76 | 1016.3 |
| 20260507113214 | 57 | 155 | 5.0 | 10.0 | 0.00 | 0.00 | 0.00 | 77 | 1016.3 |
| 20260507113114 | 57 | 199 | 6.0 | 7.0 | 0.00 | 0.00 | 0.00 | 76 | 1016.4 |
| 20260507112944 | 57 | 202 | 5.0 | 7.0 | 0.00 | 0.00 | 0.00 | 76 | 1016.3 |
| 20260507112814 | 57 | 219 | 7.0 | 9.0 | 0.00 | 0.00 | 0.00 | 76 | 1016.4 |
| 20260507112644 | 56 | 192 | 6.0 | 9.0 | 0.00 | 0.00 | 0.00 | 78 | 1016.3 |
| 20260507112514 | 56 | 181 | 6.0 | 9.0 | 0.00 | 0.00 | 0.00 | 77 | 1016.3 |
| 20260507112414 | 56 | 157 | 7.0 | 9.0 | 0.00 | 0.00 | 0.00 | 77 | 1016.3 |
| 20260507112314 | 56 | 149 | 8.0 | 12.0 | 0.00 | 0.00 | 0.00 | 77 | 1016.3 |
| 20260507112214 | 56 | 163 | 7.0 | 12.0 | 0.00 | 0.00 | 0.00 | 76 | 1016.3 |
| 20260507112114 | 56 | 153 | 7.0 | 12.0 | 0.00 | 0.00 | 0.00 | 77 | 1016.3 |
| 20260507112014 | 56 | 170 | 6.0 | 9.0 | 0.00 | 0.00 | 0.00 | 77 | 1016.3 |
| 20260507111844 | 56 | 175 | 5.0 | 6.0 | 0.00 | 0.00 | 0.00 | 77 | 1016.3 |
| 20260507111714 | 56 | 193 | 6.0 | 8.0 | 0.00 | 0.00 | 0.00 | 77 | 1016.3 |
| 20260507111544 | 56 | 147 | 8.0 | 12.0 | 0.00 | 0.00 | 0.00 | 76 | 1016.3 |
| 20260507111444 | 56 | 134 | 6.0 | 12.0 | 0.00 | 0.00 | 0.00 | 76 | 1016.3 |
| 20260507111314 | 56 | 184 | 7.0 | 8.0 | 0.00 | 0.00 | 0.00 | 76 | 1016.3 |
| 20260507111144 | 57 | 146 | 7.0 | 9.0 | 0.00 | 0.00 | 0.00 | 76 | 1016.3 |
| 20260507111044 | 57 | 152 | 7.0 | 10.0 | 0.00 | 0.00 | 0.00 | 76 | 1016.3 |
| 20260507110914 | 57 | 167 | 8.0 | 10.0 | 0.00 | 0.00 | 0.00 | 76 | 1016.3 |
| 20260507110814 | 57 | 167 | 7.0 | 12.0 | 0.00 | 0.00 | 0.00 | 77 | 1016.3 |
| 20260507110714 | 57 | 191 | 6.0 | 9.0 | 0.00 | 0.00 | 0.00 | 77 | 1016.3 |
| 20260507110544 | 57 | 188 | 6.0 | 10.0 | 0.00 | 0.00 | 0.00 | 77 | 1016.3 |
| 20260507110444 | 57 | 189 | 6.0 | 8.0 | 0.00 | 0.00 | 0.00 | 77 | 1016.3 |
| 20260507110344 | 57 | 164 | 6.0 | 10.0 | 0.00 | 0.00 | 0.00 | 77 | 1016.4 |
| 20260507110214 | 56 | 165 | 6.0 | 9.0 | 0.00 | 0.00 | 0.00 | 78 | 1016.4 |
| 20260507110114 | 56 | 166 | 5.0 | 9.0 | 0.00 | 0.00 | 0.00 | 77 | 1016.4 |
| 20260507110014 | 56 | 167 | 6.0 | 7.0 | 0.00 | 0.00 | 0.00 | 77 | 1016.3 |
| 20260507105844 | 56 | 157 | 8.0 | 10.0 | 0.00 | 0.00 | 0.00 | 76 | 1016.4 |
| 20260507105714 | 56 | 162 | 8.0 | 12.0 | 0.00 | 0.00 | 0.00 | 77 | 1016.4 |
| 20260507105614 | 56 | 174 | 7.0 | 12.0 | 0.00 | 0.00 | 0.00 | 76 | 1016.4 |
| 20260507105513 | 56 | 153 | 8.0 | 12.0 | 0.00 | 0.00 | 0.00 | 76 | 1016.3 |
| 20260507105344 | 56 | 150 | 8.0 | 10.0 | 0.00 | 0.00 | 0.00 | 76 | 1016.4 |
| 20260507105244 | 56 | 163 | 8.0 | 10.0 | 0.00 | 0.00 | 0.00 | 77 | 1016.4 |
| 20260507105113 | 56 | 169 | 8.0 | 10.0 | 0.00 | 0.00 | 0.00 | 76 | 1016.4 |
| 20260507105014 | 56 | 152 | 8.0 | 12.0 | 0.00 | 0.00 | 0.00 | 76 | 1016.4 |
| 20260507104914 | 56 | 157 | 8.0 | 12.0 | 0.00 | 0.00 | 0.00 | 76 | 1016.4 |
| 20260507104814 | 56 | 175 | 7.0 | 9.0 | 0.00 | 0.00 | 0.00 | 77 | 1016.4 |
| 20260507104644 | 56 | 213 | 6.0 | 7.0 | 0.00 | 0.00 | 0.00 | 76 | 1016.4 |
| 20260507104514 | 56 | 152 | 8.0 | 10.0 | 0.00 | 0.00 | 0.00 | 76 | 1016.4 |
| 20260507104414 | 56 | 167 | 9.0 | 12.0 | 0.00 | 0.00 | 0.00 | 76 | 1016.4 |
| 20260507104314 | 56 | 168 | 8.0 | 13.0 | 0.00 | 0.00 | 0.00 | 76 | 1016.4 |
| 20260507104144 | 56 | 162 | 9.0 | 12.0 | 0.00 | 0.00 | 0.00 | 76 | 1016.4 |
| 20260507104015 | 56 | 173 | 6.0 | 12.0 | 0.00 | 0.00 | 0.00 | 77 | 1016.4 |
| 20260507103844 | 56 | 193 | 7.0 | 7.0 | 0.00 | 0.00 | 0.00 | 77 | 1016.4 |
| 20260507103743 | 56 | 170 | 8.0 | 10.0 | 0.00 | 0.00 | 0.00 | 77 | 1016.4 |
| 20260507103613 | 56 | 158 | 7.0 | 10.0 | 0.00 | 0.00 | 0.00 | 77 | 1016.4 |
| 20260507103513 | 56 | 171 | 5.0 | 9.0 | 0.00 | 0.00 | 0.00 | 77 | 1016.4 |
| 20260507103413 | 56 | 209 | 5.0 | 6.0 | 0.00 | 0.00 | 0.00 | 77 | 1016.4 |
| 20260507103313 | 56 | 174 | 8.0 | 8.0 | 0.00 | 0.00 | 0.00 | 76 | 1016.4 |
| 20260507103213 | 56 | 163 | 8.0 | 13.0 | 0.00 | 0.00 | 0.00 | 77 | 1016.4 |
| 20260507103043 | 56 | 193 | 7.0 | 8.0 | 0.00 | 0.00 | 0.00 | 77 | 1016.4 |
| 20260507102913 | 56 | 170 | 8.0 | 10.0 | 0.00 | 0.00 | 0.00 | 77 | 1016.4 |
| 20260507102743 | 56 | 191 | 6.0 | 10.0 | 0.00 | 0.00 | 0.00 | 78 | 1016.4 |
| 20260507102613 | 56 | 173 | 6.0 | 8.0 | 0.00 | 0.00 | 0.00 | 77 | 1016.4 |
| 20260507102513 | 56 | 158 | 8.0 | 10.0 | 0.00 | 0.00 | 0.00 | 77 | 1016.4 |
| 20260507102413 | 56 | 159 | 8.0 | 13.0 | 0.00 | 0.00 | 0.00 | 77 | 1016.4 |
| 20260507102313 | 56 | 154 | 8.0 | 13.0 | 0.00 | 0.00 | 0.00 | 77 | 1016.4 |
| 20260507102143 | 56 | 159 | 8.0 | 12.0 | 0.00 | 0.00 | 0.00 | 78 | 1016.4 |
| 20260507102013 | 56 | 165 | 8.0 | 12.0 | 0.00 | 0.00 | 0.00 | 79 | 1016.4 |
| 20260507101843 | 56 | 183 | 5.0 | 8.0 | 0.00 | 0.00 | 0.00 | 78 | 1016.3 |
| 20260507101743 | 56 | 220 | 7.0 | 8.0 | 0.00 | 0.00 | 0.00 | 78 | 1016.4 |
| 20260507101643 | 56 | 180 | 7.0 | 10.0 | 0.00 | 0.00 | 0.00 | 78 | 1016.4 |
| 20260507101543 | 56 | 170 | 7.0 | 12.0 | 0.00 | 0.00 | 0.00 | 78 | 1016.3 |
| 20260507101443 | 56 | 200 | 8.0 | 9.0 | 0.00 | 0.00 | 0.00 | 78 | 1016.3 |
| 20260507101343 | 56 | 189 | 8.0 | 12.0 | 0.00 | 0.00 | 0.00 | 78 | 1016.3 |
| 20260507101243 | 56 | 205 | 9.0 | 12.0 | 0.00 | 0.00 | 0.00 | 78 | 1016.3 |
| 20260507101143 | 56 | 165 | 8.0 | 12.0 | 0.00 | 0.00 | 0.00 | 78 | 1016.3 |
| 20260507101013 | 56 | 208 | 8.0 | 12.0 | 0.00 | 0.00 | 0.00 | 78 | 1016.4 |
| 20260507100844 | 56 | 168 | 8.0 | 12.0 | 0.00 | 0.00 | 0.00 | 78 | 1016.4 |
| 20260507100743 | 56 | 206 | 8.0 | 12.0 | 0.00 | 0.00 | 0.00 | 78 | 1016.3 |
| 20260507100643 | 56 | 209 | 7.0 | 12.0 | 0.00 | 0.00 | 0.00 | 78 | 1016.4 |
| 20260507100513 | 56 | 176 | 6.0 | 9.0 | 0.00 | 0.00 | 0.00 | 79 | 1016.4 |
| 20260507100413 | 56 | 204 | 6.0 | 7.0 | 0.00 | 0.00 | 0.00 | 79 | 1016.4 |
| 20260507100243 | 56 | 195 | 6.0 | 8.0 | 0.00 | 0.00 | 0.00 | 79 | 1016.4 |
| 20260507100143 | 55 | 200 | 7.0 | 8.0 | 0.00 | 0.00 | 0.00 | 79 | 1016.4 |
| 20260507100043 | 55 | 163 | 7.0 | 9.0 | 0.00 | 0.00 | 0.00 | 79 | 1016.4 |
| 20260507095913 | 55 | 173 | 7.0 | 12.0 | 0.00 | 0.00 | 0.00 | 79 | 1016.4 |
| 20260507095813 | 55 | 195 | 9.0 | 10.0 | 0.00 | 0.00 | 0.00 | 79 | 1016.4 |
| 20260507095713 | 55 | 179 | 9.0 | 13.0 | 0.00 | 0.00 | 0.00 | 79 | 1016.4 |
| 20260507095613 | 55 | 186 | 8.0 | 12.0 | 0.00 | 0.00 | 0.00 | 79 | 1016.3 |
| 20260507095513 | 55 | 172 | 8.0 | 12.0 | 0.00 | 0.00 | 0.00 | 80 | 1016.4 |
| 20260507095343 | 55 | 165 | 9.0 | 12.0 | 0.00 | 0.00 | 0.00 | 79 | 1016.4 |
| 20260507095243 | 55 | 157 | 9.0 | 13.0 | 0.00 | 0.00 | 0.00 | 80 | 1016.4 |
| 20260507095113 | 55 | 184 | 7.0 | 12.0 | 0.00 | 0.00 | 0.00 | 80 | 1016.4 |
| 20260507094943 | 55 | 161 | 9.0 | 15.0 | 0.00 | 0.00 | 0.00 | 80 | 1016.4 |
| 20260507094813 | 55 | 167 | 7.0 | 14.0 | 0.00 | 0.00 | 0.00 | 80 | 1016.4 |
| 20260507094643 | 55 | 166 | 9.0 | 13.0 | 0.00 | 0.00 | 0.00 | 79 | 1016.4 |
| 20260507094543 | 55 | 167 | 9.0 | 14.0 | 0.00 | 0.00 | 0.00 | 79 | 1016.4 |
| 20260507094443 | 55 | 184 | 9.0 | 13.0 | 0.00 | 0.00 | 0.00 | 79 | 1016.4 |
| 20260507094343 | 55 | 190 | 9.0 | 12.0 | 0.00 | 0.00 | 0.00 | 79 | 1016.4 |
| 20260507094243 | 55 | 170 | 8.0 | 12.0 | 0.00 | 0.00 | 0.00 | 79 | 1016.4 |
| 20260507094143 | 55 | 180 | 9.0 | 10.0 | 0.00 | 0.00 | 0.00 | 79 | 1016.4 |
| 20260507094043 | 55 | 165 | 9.0 | 13.0 | 0.00 | 0.00 | 0.00 | 79 | 1016.4 |
| 20260507093943 | 55 | 159 | 8.0 | 10.0 | 0.00 | 0.00 | 0.00 | 79 | 1016.4 |
| 20260507093843 | 55 | 167 | 8.0 | 10.0 | 0.00 | 0.00 | 0.00 | 79 | 1016.4 |
| 20260507093743 | 55 | 179 | 8.0 | 13.0 | 0.00 | 0.00 | 0.00 | 80 | 1016.4 |
| 20260507093643 | 55 | 179 | 7.0 | 10.0 | 0.00 | 0.00 | 0.00 | 80 | 1016.4 |
| 20260507093543 | 55 | 163 | 8.0 | 12.0 | 0.00 | 0.00 | 0.00 | 79 | 1016.4 |
| 20260507093413 | 55 | 167 | 8.0 | 12.0 | 0.00 | 0.00 | 0.00 | 80 | 1016.3 |
| 20260507093313 | 55 | 169 | 7.0 | 12.0 | 0.00 | 0.00 | 0.00 | 80 | 1016.4 |
| 20260507093213 | 55 | 169 | 7.0 | 12.0 | 0.00 | 0.00 | 0.00 | 80 | 1016.3 |
| 20260507093043 | 55 | 163 | 8.0 | 12.0 | 0.00 | 0.00 | 0.00 | 80 | 1016.3 |
| 20260507092943 | 55 | 173 | 7.0 | 9.0 | 0.00 | 0.00 | 0.00 | 80 | 1016.3 |
| 20260507092843 | 55 | 154 | 8.0 | 13.0 | 0.00 | 0.00 | 0.00 | 80 | 1016.3 |
| 20260507092743 | 55 | 183 | 7.0 | 12.0 | 0.00 | 0.00 | 0.00 | 80 | 1016.3 |
| 20260507092613 | 55 | 176 | 8.0 | 12.0 | 0.00 | 0.00 | 0.00 | 80 | 1016.3 |
| 20260507092513 | 55 | 159 | 8.0 | 13.0 | 0.00 | 0.00 | 0.00 | 80 | 1016.3 |
| 20260507092413 | 55 | 149 | 9.0 | 12.0 | 0.00 | 0.00 | 0.00 | 79 | 1016.3 |
| 20260507092313 | 55 | 165 | 10.0 | 14.0 | 0.00 | 0.00 | 0.00 | 80 | 1016.3 |
| 20260507092213 | 55 | 163 | 10.0 | 14.0 | 0.00 | 0.00 | 0.00 | 80 | 1016.3 |
| 20260507092113 | 55 | 155 | 7.0 | 13.0 | 0.00 | 0.00 | 0.00 | 80 | 1016.3 |
| 20260507092013 | 55 | 175 | 6.0 | 9.0 | 0.00 | 0.00 | 0.00 | 80 | 1016.3 |
| 20260507091913 | 55 | 206 | 7.0 | 10.0 | 0.00 | 0.00 | 0.00 | 80 | 1016.3 |
| 20260507091813 | 55 | 185 | 7.0 | 10.0 | 0.00 | 0.00 | 0.00 | 81 | 1016.3 |
| 20260507091713 | 55 | 188 | 6.0 | 10.0 | 0.00 | 0.00 | 0.00 | 81 | 1016.3 |
| 20260507091613 | 54 | 200 | 7.0 | 8.0 | 0.00 | 0.00 | 0.00 | 80 | 1016.3 |
| 20260507091513 | 54 | 154 | 8.0 | 12.0 | 0.00 | 0.00 | 0.00 | 81 | 1016.3 |
| 20260507091413 | 54 | 169 | 8.0 | 12.0 | 0.00 | 0.00 | 0.00 | 81 | 1016.3 |
| 20260507091312 | 54 | 163 | 8.0 | 13.0 | 0.00 | 0.00 | 0.00 | 81 | 1016.3 |
| 20260507091212 | 54 | 167 | 9.0 | 12.0 | 0.00 | 0.00 | 0.00 | 80 | 1016.2 |
| 20260507091112 | 55 | 164 | 9.0 | 13.0 | 0.00 | 0.00 | 0.00 | 80 | 1016.2 |
| 20260507091012 | 55 | 173 | 7.0 | 12.0 | 0.00 | 0.00 | 0.00 | 81 | 1016.2 |
| 20260507090912 | 54 | 193 | 9.0 | 12.0 | 0.00 | 0.00 | 0.00 | 80 | 1016.2 |
| 20260507090812 | 55 | 164 | 10.0 | 14.0 | 0.00 | 0.00 | 0.00 | 81 | 1016.2 |
| 20260507090712 | 54 | 156 | 7.0 | 14.0 | 0.00 | 0.00 | 0.00 | 81 | 1016.3 |
| 20260507090612 | 54 | 179 | 8.0 | 12.0 | 0.00 | 0.00 | 0.00 | 81 | 1016.2 |
| 20260507090512 | 54 | 159 | 9.0 | 13.0 | 0.00 | 0.00 | 0.00 | 81 | 1016.3 |
| 20260507090412 | 54 | 157 | 9.0 | 13.0 | 0.00 | 0.00 | 0.00 | 81 | 1016.3 |
| 20260507090312 | 54 | 180 | 7.0 | 12.0 | 0.00 | 0.00 | 0.00 | 81 | 1016.3 |
| 20260507090212 | 54 | 204 | 7.0 | 8.0 | 0.00 | 0.00 | 0.00 | 81 | 1016.2 |
| 20260507090042 | 54 | 159 | 9.0 | 13.0 | 0.00 | 0.00 | 0.00 | 81 | 1016.3 |
| 20260507085942 | 54 | 156 | 10.0 | 12.0 | 0.00 | 0.00 | 0.00 | 81 | 1016.3 |
| 20260507085842 | 54 | 165 | 12.0 | 14.0 | 0.00 | 0.00 | 0.00 | 81 | 1016.2 |
| 20260507085742 | 54 | 154 | 9.0 | 13.0 | 0.00 | 0.00 | 0.00 | 81 | 1016.3 |
| 20260507085641 | 54 | 166 | 9.0 | 12.0 | 0.00 | 0.00 | 0.00 | 82 | 1016.2 |
| 20260507085541 | 54 | 174 | 7.0 | 13.0 | 0.00 | 0.00 | 0.00 | 82 | 1016.2 |
| 20260507085441 | 54 | 176 | 7.0 | 10.0 | 0.00 | 0.00 | 0.00 | 82 | 1016.3 |
| 20260507085341 | 53 | 181 | 6.0 | 10.0 | 0.00 | 0.00 | 0.00 | 81 | 1016.3 |
| 20260507085241 | 53 | 177 | 8.0 | 13.0 | 0.00 | 0.00 | 0.00 | 81 | 1016.3 |
| 20260507085141 | 53 | 159 | 9.0 | 12.0 | 0.00 | 0.00 | 0.00 | 81 | 1016.2 |
| 20260507085041 | 53 | 163 | 10.0 | 12.0 | 0.00 | 0.00 | 0.00 | 81 | 1016.3 |
| 20260507084941 | 53 | 156 | 10.0 | 14.0 | 0.00 | 0.00 | 0.00 | 81 | 1016.3 |
| 20260507084841 | 53 | 165 | 7.0 | 12.0 | 0.00 | 0.00 | 0.00 | 82 | 1016.3 |
| 20260507084741 | 53 | 162 | 7.0 | 10.0 | 0.00 | 0.00 | 0.00 | 81 | 1016.2 |
| 20260507084641 | 53 | 152 | 9.0 | 12.0 | 0.00 | 0.00 | 0.00 | 82 | 1016.2 |
| 20260507084541 | 53 | 147 | 8.0 | 12.0 | 0.00 | 0.00 | 0.00 | 82 | 1016.3 |
| 20260507084441 | 53 | 157 | 6.0 | 9.0 | 0.00 | 0.00 | 0.00 | 82 | 1016.2 |
| 20260507084341 | 53 | 153 | 7.0 | 12.0 | 0.00 | 0.00 | 0.00 | 82 | 1016.2 |
| 20260507084241 | 53 | 149 | 9.0 | 10.0 | 0.00 | 0.00 | 0.00 | 82 | 1016.2 |
| 20260507084141 | 53 | 157 | 9.0 | 12.0 | 0.00 | 0.00 | 0.00 | 82 | 1016.2 |
| 20260507084041 | 53 | 151 | 10.0 | 13.0 | 0.00 | 0.00 | 0.00 | 82 | 1016.2 |
| 20260507083940 | 53 | 137 | 9.0 | 13.0 | 0.00 | 0.00 | 0.00 | 82 | 1016.2 |
| 20260507083840 | 53 | 155 | 10.0 | 12.0 | 0.00 | 0.00 | 0.00 | 82 | 1016.2 |
| 20260507083740 | 53 | 154 | 10.0 | 15.0 | 0.00 | 0.00 | 0.00 | 82 | 1016.2 |
| 20260507083640 | 53 | 150 | 9.0 | 12.0 | 0.00 | 0.00 | 0.00 | 82 | 1016.2 |
| 20260507083540 | 53 | 152 | 9.0 | 12.0 | 0.00 | 0.00 | 0.00 | 82 | 1016.2 |
| 20260507083440 | 53 | 168 | 9.0 | 13.0 | 0.00 | 0.00 | 0.00 | 82 | 1016.2 |
| 20260507083340 | 53 | 144 | 8.0 | 12.0 | 0.00 | 0.00 | 0.00 | 82 | 1016.2 |
| 20260507083240 | 53 | 150 | 9.0 | 12.0 | 0.00 | 0.00 | 0.00 | 82 | 1016.2 |
| 20260507083140 | 53 | 159 | 9.0 | 13.0 | 0.00 | 0.00 | 0.00 | 82 | 1016.2 |
| 20260507083040 | 53 | 161 | 8.0 | 14.0 | 0.00 | 0.00 | 0.00 | 82 | 1016.2 |
| 20260507082940 | 53 | 166 | 8.0 | 12.0 | 0.00 | 0.00 | 0.00 | 82 | 1016.2 |
| 20260507082840 | 53 | 158 | 8.0 | 10.0 | 0.00 | 0.00 | 0.00 | 82 | 1016.2 |
| 20260507082740 | 53 | 159 | 8.0 | 12.0 | 0.00 | 0.00 | 0.00 | 82 | 1016.2 |
| 20260507082640 | 53 | 158 | 8.0 | 12.0 | 0.00 | 0.00 | 0.00 | 82 | 1016.2 |
| 20260507082539 | 53 | 150 | 8.0 | 15.0 | 0.00 | 0.00 | 0.00 | 82 | 1016.2 |
| 20260507082439 | 53 | 160 | 7.0 | 15.0 | 0.00 | 0.00 | 0.00 | 82 | 1016.2 |
| 20260507082339 | 53 | 149 | 7.0 | 12.0 | 0.00 | 0.00 | 0.00 | 82 | 1016.2 |
| 20260507082239 | 53 | 147 | 7.0 | 12.0 | 0.00 | 0.00 | 0.00 | 82 | 1016.2 |
| 20260507082139 | 53 | 161 | 8.0 | 9.0 | 0.00 | 0.00 | 0.00 | 82 | 1016.2 |
| 20260507082039 | 53 | 150 | 9.0 | 13.0 | 0.00 | 0.00 | 0.00 | 82 | 1016.2 |
| 20260507081939 | 53 | 151 | 8.0 | 12.0 | 0.00 | 0.00 | 0.00 | 82 | 1016.2 |
| 20260507081840 | 53 | 160 | 8.0 | 10.0 | 0.00 | 0.00 | 0.00 | 82 | 1016.2 |
| 20260507081739 | 53 | 171 | 8.0 | 13.0 | 0.00 | 0.00 | 0.00 | 82 | 1016.2 |
| 20260507081639 | 53 | 153 | 8.0 | 12.0 | 0.00 | 0.00 | 0.00 | 82 | 1016.2 |
| 20260507081539 | 53 | 168 | 8.0 | 10.0 | 0.00 | 0.00 | 0.00 | 82 | 1016.2 |
| 20260507081439 | 53 | 158 | 8.0 | 12.0 | 0.00 | 0.00 | 0.00 | 82 | 1016.2 |
| 20260507081339 | 53 | 147 | 7.0 | 10.0 | 0.00 | 0.00 | 0.00 | 82 | 1016.2 |
| 20260507081239 | 53 | 151 | 7.0 | 10.0 | 0.00 | 0.00 | 0.00 | 82 | 1016.2 |
| 20260507081138 | 53 | 153 | 6.0 | 10.0 | 0.00 | 0.00 | 0.00 | 82 | 1016.2 |
| 20260507081038 | 53 | 159 | 6.0 | 10.0 | 0.00 | 0.00 | 0.00 | 82 | 1016.2 |
| 20260507080938 | 53 | 164 | 7.0 | 9.0 | 0.00 | 0.00 | 0.00 | 82 | 1016.2 |
| 20260507080838 | 53 | 161 | 7.0 | 10.0 | 0.00 | 0.00 | 0.00 | 82 | 1016.2 |
| 20260507080738 | 53 | 160 | 8.0 | 10.0 | 0.00 | 0.00 | 0.00 | 82 | 1016.2 |
| 20260507080638 | 53 | 146 | 8.0 | 13.0 | 0.00 | 0.00 | 0.00 | 82 | 1016.2 |
| 20260507080538 | 53 | 152 | 7.0 | 10.0 | 0.00 | 0.00 | 0.00 | 82 | 1016.2 |
| 20260507080438 | 53 | 154 | 8.0 | 12.0 | 0.00 | 0.00 | 0.00 | 82 | 1016.2 |
| 20260507080338 | 53 | 155 | 9.0 | 14.0 | 0.00 | 0.00 | 0.00 | 82 | 1016.2 |
| 20260507080238 | 53 | 150 | 7.0 | 12.0 | 0.00 | 0.00 | 0.00 | 82 | 1016.2 |
| 20260507080138 | 53 | 159 | 7.0 | 10.0 | 0.00 | 0.00 | 0.00 | 82 | 1016.2 |
| 20260507080038 | 53 | 154 | 7.0 | 10.0 | 0.00 | 0.00 | 0.00 | 82 | 1016.2 |
| 20260507075938 | 53 | 162 | 7.0 | 9.0 | 0.00 | 0.00 | 0.00 | 83 | 1016.2 |
| 20260507075837 | 53 | 177 | 9.0 | 12.0 | 0.00 | 0.00 | 0.00 | 83 | 1016.2 |
| 20260507075737 | 53 | 158 | 10.0 | 12.0 | 0.00 | 0.00 | 0.00 | 83 | 1016.2 |
| 20260507075637 | 53 | 153 | 8.0 | 14.0 | 0.00 | 0.00 | 0.00 | 83 | 1016.1 |
| 20260507075537 | 52 | 165 | 8.0 | 10.0 | 0.00 | 0.00 | 0.00 | 83 | 1016.1 |
| 20260507075437 | 52 | 144 | 7.0 | 13.0 | 0.00 | 0.00 | 0.00 | 83 | 1016.2 |
| 20260507075337 | 52 | 165 | 7.0 | 8.0 | 0.00 | 0.00 | 0.00 | 83 | 1016.1 |
| 20260507075237 | 52 | 158 | 8.0 | 12.0 | 0.00 | 0.00 | 0.00 | 83 | 1016.1 |
| 20260507075137 | 52 | 168 | 9.0 | 13.0 | 0.00 | 0.00 | 0.00 | 83 | 1016.1 |
| 20260507075037 | 52 | 153 | 10.0 | 12.0 | 0.00 | 0.00 | 0.00 | 83 | 1016.1 |
| 20260507074937 | 52 | 148 | 9.0 | 15.0 | 0.00 | 0.00 | 0.00 | 83 | 1016.1 |
| 20260507074837 | 52 | 156 | 8.0 | 12.0 | 0.00 | 0.00 | 0.00 | 83 | 1016.1 |
| 20260507074737 | 52 | 151 | 7.0 | 10.0 | 0.00 | 0.00 | 0.00 | 83 | 1016.1 |
| 20260507074637 | 52 | 171 | 6.0 | 9.0 | 0.00 | 0.00 | 0.00 | 83 | 1016.2 |
| 20260507074537 | 52 | 148 | 6.0 | 10.0 | 0.00 | 0.00 | 0.00 | 83 | 1016.2 |
| 20260507074437 | 52 | 147 | 6.0 | 10.0 | 0.00 | 0.00 | 0.00 | 83 | 1016.1 |
| 20260507074337 | 52 | 154 | 7.0 | 8.0 | 0.00 | 0.00 | 0.00 | 83 | 1016.1 |
| 20260507074236 | 52 | 136 | 8.0 | 12.0 | 0.00 | 0.00 | 0.00 | 83 | 1016.0 |
| 20260507074136 | 52 | 149 | 8.0 | 9.0 | 0.00 | 0.00 | 0.00 | 83 | 1016.0 |
| 20260507074036 | 52 | 137 | 9.0 | 13.0 | 0.00 | 0.00 | 0.00 | 83 | 1016.0 |
| 20260507073936 | 52 | 148 | 8.0 | 12.0 | 0.00 | 0.00 | 0.00 | 83 | 1016.0 |
| 20260507073836 | 52 | 146 | 8.0 | 12.0 | 0.00 | 0.00 | 0.00 | 83 | 1016.0 |
| 20260507073736 | 52 | 139 | 10.0 | 13.0 | 0.00 | 0.00 | 0.00 | 83 | 1016.0 |
| 20260507073636 | 52 | 134 | 12.0 | 13.0 | 0.00 | 0.01 | 0.00 | 83 | 1016.0 |
| 20260507073536 | 52 | 128 | 9.0 | 15.0 | 0.00 | 0.01 | 0.00 | 83 | 1015.9 |
| 20260507073436 | 52 | 137 | 9.0 | 12.0 | 0.00 | 0.01 | 0.00 | 83 | 1015.9 |
| 20260507073336 | 52 | 137 | 8.0 | 10.0 | 0.00 | 0.01 | 0.00 | 83 | 1015.9 |
| 20260507073236 | 52 | 149 | 9.0 | 12.0 | 0.00 | 0.01 | 0.00 | 83 | 1015.9 |
| 20260507073136 | 52 | 141 | 9.0 | 13.0 | 0.00 | 0.01 | 0.00 | 83 | 1015.9 |
| 20260507073036 | 52 | 138 | 8.0 | 12.0 | 0.00 | 0.01 | 0.00 | 83 | 1015.9 |
| 20260507072936 | 52 | 144 | 8.0 | 12.0 | 0.00 | 0.01 | 0.00 | 83 | 1015.9 |
| 20260507072836 | 52 | 141 | 9.0 | 13.0 | 0.00 | 0.01 | 0.00 | 83 | 1015.9 |
| 20260507072736 | 52 | 140 | 9.0 | 12.0 | 0.00 | 0.01 | 0.00 | 83 | 1015.9 |
| 20260507072636 | 52 | 121 | 10.0 | 12.0 | 0.00 | 0.01 | 0.00 | 83 | 1015.9 |
| 20260507072536 | 52 | 124 | 8.0 | 13.0 | 0.00 | 0.01 | 0.00 | 83 | 1015.9 |
| 20260507072435 | 52 | 137 | 9.0 | 12.0 | 0.00 | 0.01 | 0.00 | 83 | 1015.9 |
| 20260507072335 | 52 | 130 | 8.0 | 12.0 | 0.00 | 0.01 | 0.00 | 83 | 1015.9 |
| 20260507072235 | 52 | 132 | 8.0 | 10.0 | 0.00 | 0.01 | 0.00 | 83 | 1015.9 |
| 20260507072135 | 52 | 133 | 9.0 | 14.0 | 0.00 | 0.01 | 0.00 | 83 | 1015.9 |
| 20260507072035 | 52 | 130 | 7.0 | 13.0 | 0.00 | 0.01 | 0.00 | 83 | 1015.9 |
| 20260507071935 | 52 | 135 | 7.0 | 10.0 | 0.00 | 0.01 | 0.00 | 83 | 1015.9 |
| 20260507071835 | 52 | 131 | 9.0 | 12.0 | 0.00 | 0.01 | 0.00 | 83 | 1015.9 |
| 20260507071735 | 52 | 133 | 8.0 | 13.0 | 0.00 | 0.01 | 0.00 | 83 | 1015.9 |
| 20260507071635 | 52 | 141 | 7.0 | 12.0 | 0.00 | 0.01 | 0.00 | 83 | 1015.9 |
| 20260507071535 | 52 | 129 | 9.0 | 10.0 | 0.00 | 0.01 | 0.00 | 83 | 1015.9 |
| 20260507071435 | 52 | 130 | 8.0 | 12.0 | 0.00 | 0.01 | 0.00 | 83 | 1015.9 |
| 20260507071335 | 52 | 120 | 8.0 | 10.0 | 0.00 | 0.01 | 0.00 | 83 | 1015.8 |
| 20260507071235 | 52 | 137 | 8.0 | 10.0 | 0.00 | 0.01 | 0.00 | 83 | 1015.9 |
| 20260507071135 | 52 | 130 | 8.0 | 10.0 | 0.00 | 0.01 | 0.00 | 83 | 1015.8 |
| 20260507071035 | 52 | 129 | 9.0 | 12.0 | 0.00 | 0.01 | 0.00 | 84 | 1015.8 |
| 20260507070905 | 52 | 127 | 9.0 | 13.0 | 0.00 | 0.01 | 0.00 | 84 | 1015.8 |
| 20260507070805 | 52 | 135 | 9.0 | 13.0 | 0.00 | 0.01 | 0.00 | 84 | 1015.8 |
| 20260507070704 | 52 | 135 | 9.0 | 12.0 | 0.00 | 0.01 | 0.00 | 84 | 1015.8 |
| 20260507070604 | 52 | 125 | 8.0 | 12.0 | 0.00 | 0.01 | 0.00 | 84 | 1015.7 |
| 20260507070504 | 52 | 131 | 10.0 | 13.0 | 0.00 | 0.01 | 0.00 | 84 | 1015.7 |
| 20260507070404 | 52 | 121 | 10.0 | 13.0 | 0.00 | 0.01 | 0.00 | 84 | 1015.7 |
| 20260507070304 | 52 | 127 | 8.0 | 12.0 | 0.00 | 0.01 | 0.00 | 84 | 1015.7 |
| 20260507070204 | 52 | 133 | 8.0 | 10.0 | 0.00 | 0.01 | 0.00 | 84 | 1015.6 |
| 20260507070104 | 52 | 132 | 9.0 | 12.0 | 0.00 | 0.01 | 0.00 | 84 | 1015.6 |
| 20260507070008 | 52 | 132 | 10.0 | 12.0 | 0.00 | 0.01 | 0.00 | 84 | 1015.6 |
| 20260507065904 | 52 | 138 | 8.0 | 16.0 | 0.00 | 0.01 | 0.00 | 84 | 1015.6 |
| 20260507065804 | 52 | 130 | 9.0 | 13.0 | 0.00 | 0.01 | 0.00 | 84 | 1015.6 |
| 20260507065704 | 52 | 132 | 9.0 | 10.0 | 0.00 | 0.01 | 0.00 | 84 | 1015.6 |
| 20260507065604 | 52 | 133 | 10.0 | 12.0 | 0.00 | 0.01 | 0.00 | 84 | 1015.6 |
| 20260507065504 | 52 | 132 | 9.0 | 13.0 | 0.00 | 0.01 | 0.00 | 84 | 1015.6 |
| 20260507065404 | 52 | 137 | 9.0 | 13.0 | 0.00 | 0.01 | 0.00 | 84 | 1015.6 |
| 20260507065306 | 52 | 137 | 9.0 | 12.0 | 0.00 | 0.01 | 0.00 | 84 | 1015.7 |
| 20260507065204 | 52 | 127 | 8.0 | 12.0 | 0.00 | 0.01 | 0.00 | 84 | 1015.7 |
| 20260507065104 | 52 | 126 | 8.0 | 12.0 | 0.00 | 0.01 | 0.00 | 84 | 1015.7 |
| 20260507065004 | 52 | 131 | 8.0 | 10.0 | 0.00 | 0.01 | 0.00 | 84 | 1015.7 |
| 20260507064903 | 52 | 118 | 9.0 | 10.0 | 0.00 | 0.01 | 0.00 | 84 | 1015.7 |
| 20260507064803 | 52 | 127 | 8.0 | 12.0 | 0.00 | 0.01 | 0.00 | 85 | 1015.7 |
| 20260507064703 | 52 | 137 | 7.0 | 9.0 | 0.00 | 0.01 | 0.00 | 85 | 1015.7 |
| 20260507064603 | 52 | 134 | 8.0 | 12.0 | 0.00 | 0.01 | 0.00 | 85 | 1015.7 |
| 20260507064503 | 51 | 135 | 7.0 | 10.0 | 0.00 | 0.01 | 0.00 | 85 | 1015.7 |
| 20260507064403 | 51 | 134 | 8.0 | 9.0 | 0.00 | 0.01 | 0.00 | 85 | 1015.7 |
| 20260507064303 | 51 | 139 | 9.0 | 13.0 | 0.00 | 0.01 | 0.00 | 85 | 1015.7 |
| 20260507064203 | 51 | 142 | 8.0 | 12.0 | 0.00 | 0.01 | 0.00 | 85 | 1015.7 |
| 20260507064103 | 51 | 141 | 8.0 | 12.0 | 0.00 | 0.01 | 0.00 | 85 | 1015.7 |
| 20260507064003 | 51 | 129 | 7.0 | 13.0 | 0.00 | 0.01 | 0.00 | 85 | 1015.7 |
| 20260507063903 | 51 | 146 | 8.0 | 10.0 | 0.00 | 0.01 | 0.00 | 85 | 1015.7 |
| 20260507063803 | 51 | 136 | 8.0 | 12.0 | 0.00 | 0.01 | 0.00 | 85 | 1015.8 |
| 20260507063703 | 51 | 132 | 8.0 | 10.0 | 0.00 | 0.01 | 0.00 | 85 | 1015.8 |
| 20260507063602 | 51 | 139 | 9.0 | 12.0 | 0.00 | 0.01 | 0.00 | 85 | 1015.8 |
| 20260507063502 | 51 | 128 | 9.0 | 14.0 | 0.00 | 0.01 | 0.00 | 86 | 1015.8 |
| 20260507063402 | 51 | 123 | 8.0 | 12.0 | 0.00 | 0.01 | 0.00 | 86 | 1015.8 |
| 20260507063302 | 51 | 139 | 7.0 | 12.0 | 0.00 | 0.01 | 0.00 | 86 | 1015.8 |
| 20260507063202 | 51 | 144 | 7.0 | 9.0 | 0.00 | 0.01 | 0.00 | 86 | 1015.8 |
| 20260507063102 | 51 | 140 | 8.0 | 12.0 | 0.00 | 0.01 | 0.00 | 86 | 1015.8 |
| 20260507063002 | 51 | 139 | 6.0 | 12.0 | 0.00 | 0.01 | 0.00 | 86 | 1015.8 |
| 20260507062902 | 51 | 154 | 6.0 | 7.0 | 0.00 | 0.01 | 0.00 | 86 | 1015.8 |
| 20260507062802 | 51 | 122 | 6.0 | 10.0 | 0.00 | 0.01 | 0.00 | 86 | 1015.8 |
| 20260507062702 | 51 | 126 | 6.0 | 8.0 | 0.00 | 0.01 | 0.00 | 86 | 1015.8 |
| 20260507062602 | 51 | 104 | 7.0 | 8.0 | 0.00 | 0.01 | 0.00 | 86 | 1015.8 |
| 20260507062502 | 51 | 113 | 6.0 | 9.0 | 0.00 | 0.01 | 0.00 | 86 | 1015.8 |
| 20260507062402 | 51 | 123 | 6.0 | 8.0 | 0.00 | 0.01 | 0.00 | 86 | 1015.8 |
| 20260507062305 | 51 | 127 | 7.0 | 7.0 | 0.00 | 0.01 | 0.00 | 86 | 1015.8 |
| 20260507062202 | 51 | 113 | 8.0 | 9.0 | 0.00 | 0.01 | 0.00 | 86 | 1015.8 |
| 20260507062102 | 51 | 103 | 7.0 | 10.0 | 0.00 | 0.01 | 0.00 | 86 | 1015.8 |
| 20260507062001 | 51 | 115 | 8.0 | 10.0 | 0.00 | 0.01 | 0.00 | 86 | 1015.8 |
| 20260507061831 | 51 | 108 | 7.0 | 8.0 | 0.00 | 0.01 | 0.00 | 86 | 1015.8 |
| 20260507061731 | 51 | 97 | 7.0 | 12.0 | 0.00 | 0.01 | 0.00 | 86 | 1015.8 |
| 20260507061631 | 51 | 99 | 7.0 | 9.0 | 0.00 | 0.01 | 0.00 | 86 | 1015.8 |
| 20260507061531 | 51 | 101 | 8.0 | 12.0 | 0.00 | 0.01 | 0.00 | 86 | 1015.8 |
| 20260507061431 | 51 | 102 | 7.0 | 10.0 | 0.00 | 0.01 | 0.00 | 86 | 1015.8 |
| 20260507061331 | 50 | 105 | 6.0 | 9.0 | 0.00 | 0.01 | 0.00 | 86 | 1015.8 |
| 20260507061231 | 50 | 96 | 6.0 | 8.0 | 0.00 | 0.01 | 0.00 | 86 | 1015.8 |
| 20260507061131 | 50 | 100 | 7.0 | 8.0 | 0.00 | 0.01 | 0.00 | 86 | 1015.8 |
| 20260507061031 | 50 | 90 | 8.0 | 12.0 | 0.00 | 0.01 | 0.00 | 85 | 1015.8 |
| 20260507060931 | 50 | 92 | 8.0 | 12.0 | 0.00 | 0.01 | 0.00 | 85 | 1015.8 |
| 20260507060831 | 50 | 92 | 8.0 | 12.0 | 0.00 | 0.01 | 0.00 | 85 | 1015.8 |
| 20260507060731 | 50 | 100 | 6.0 | 10.0 | 0.00 | 0.01 | 0.00 | 86 | 1015.8 |
| 20260507060631 | 50 | 101 | 6.0 | 8.0 | 0.00 | 0.01 | 0.00 | 86 | 1015.8 |
| 20260507060531 | 50 | 106 | 6.0 | 8.0 | 0.00 | 0.01 | 0.00 | 86 | 1015.8 |
| 20260507060430 | 50 | 115 | 7.0 | 9.0 | 0.00 | 0.01 | 0.00 | 86 | 1015.8 |
| 20260507060330 | 50 | 115 | 8.0 | 10.0 | 0.00 | 0.01 | 0.00 | 86 | 1015.8 |
| 20260507060230 | 50 | 108 | 7.0 | 10.0 | 0.00 | 0.01 | 0.00 | 86 | 1015.8 |
| 20260507060130 | 50 | 109 | 7.0 | 8.0 | 0.00 | 0.01 | 0.00 | 85 | 1015.8 |
| 20260507060030 | 50 | 110 | 7.0 | 8.0 | 0.00 | 0.01 | 0.00 | 85 | 1015.7 |
| 20260507055930 | 50 | 111 | 8.0 | 9.0 | 0.00 | 0.01 | 0.00 | 85 | 1015.7 |
| 20260507055830 | 50 | 105 | 7.0 | 12.0 | 0.00 | 0.01 | 0.00 | 85 | 1015.7 |
| 20260507055730 | 50 | 112 | 7.0 | 8.0 | 0.00 | 0.01 | 0.00 | 85 | 1015.7 |
| 20260507055630 | 50 | 104 | 8.0 | 9.0 | 0.00 | 0.01 | 0.00 | 85 | 1015.7 |
| 20260507055530 | 50 | 115 | 8.0 | 12.0 | 0.00 | 0.01 | 0.00 | 85 | 1015.7 |
| 20260507055430 | 50 | 113 | 8.0 | 12.0 | 0.00 | 0.01 | 0.00 | 85 | 1015.7 |
| 20260507055330 | 50 | 114 | 7.0 | 9.0 | 0.00 | 0.01 | 0.00 | 85 | 1015.7 |
| 20260507055230 | 50 | 111 | 6.0 | 10.0 | 0.00 | 0.01 | 0.00 | 85 | 1015.7 |
| 20260507055130 | 50 | 103 | 7.0 | 8.0 | 0.00 | 0.01 | 0.00 | 85 | 1015.7 |
| 20260507055029 | 50 | 106 | 8.0 | 9.0 | 0.00 | 0.01 | 0.00 | 85 | 1015.6 |
| 20260507054929 | 50 | 101 | 7.0 | 12.0 | 0.00 | 0.01 | 0.00 | 85 | 1015.6 |
| 20260507054829 | 50 | 99 | 7.0 | 9.0 | 0.00 | 0.01 | 0.00 | 85 | 1015.6 |
| 20260507054729 | 50 | 104 | 7.0 | 9.0 | 0.00 | 0.01 | 0.00 | 85 | 1015.6 |
| 20260507054629 | 50 | 106 | 6.0 | 10.0 | 0.00 | 0.01 | 0.00 | 85 | 1015.6 |
| 20260507054529 | 50 | 107 | 6.0 | 7.0 | 0.00 | 0.01 | 0.00 | 85 | 1015.6 |
| 20260507054429 | 50 | 110 | 6.0 | 6.0 | 0.00 | 0.01 | 0.00 | 85 | 1015.5 |
| 20260507054259 | 50 | 111 | 8.0 | 12.0 | 0.00 | 0.01 | 0.00 | 84 | 1015.5 |
| 20260507054159 | 50 | 118 | 7.0 | 10.0 | 0.00 | 0.01 | 0.00 | 84 | 1015.5 |
| 20260507054059 | 50 | 113 | 7.0 | 9.0 | 0.00 | 0.01 | 0.00 | 84 | 1015.5 |
| 20260507053959 | 50 | 112 | 8.0 | 9.0 | 0.00 | 0.01 | 0.00 | 84 | 1015.5 |
| 20260507053859 | 50 | 116 | 8.0 | 12.0 | 0.00 | 0.01 | 0.00 | 84 | 1015.5 |
| 20260507053759 | 50 | 108 | 7.0 | 10.0 | 0.00 | 0.01 | 0.00 | 84 | 1015.5 |
| 20260507053659 | 50 | 110 | 7.0 | 9.0 | 0.00 | 0.01 | 0.00 | 84 | 1015.5 |
| 20260507053559 | 50 | 118 | 7.0 | 9.0 | 0.00 | 0.01 | 0.00 | 84 | 1015.5 |
| 20260507053459 | 50 | 112 | 8.0 | 12.0 | 0.00 | 0.01 | 0.00 | 84 | 1015.5 |
| 20260507053358 | 50 | 113 | 6.0 | 13.0 | 0.00 | 0.01 | 0.00 | 84 | 1015.5 |
| 20260507053258 | 50 | 111 | 7.0 | 8.0 | 0.00 | 0.01 | 0.00 | 84 | 1015.4 |
| 20260507053158 | 50 | 102 | 6.0 | 9.0 | 0.00 | 0.01 | 0.00 | 84 | 1015.4 |
| 20260507053058 | 50 | 105 | 7.0 | 7.0 | 0.00 | 0.01 | 0.00 | 84 | 1015.4 |
| 20260507052958 | 50 | 93 | 8.0 | 9.0 | 0.00 | 0.01 | 0.00 | 84 | 1015.4 |
| 20260507052858 | 50 | 110 | 8.0 | 12.0 | 0.00 | 0.01 | 0.00 | 84 | 1015.4 |
| 20260507052758 | 50 | 116 | 8.0 | 10.0 | 0.00 | 0.01 | 0.00 | 84 | 1015.4 |
| 20260507052658 | 50 | 107 | 6.0 | 10.0 | 0.00 | 0.01 | 0.00 | 84 | 1015.4 |
| 20260507052558 | 50 | 102 | 6.0 | 8.0 | 0.00 | 0.01 | 0.00 | 84 | 1015.4 |
| 20260507052458 | 50 | 108 | 8.0 | 9.0 | 0.00 | 0.01 | 0.00 | 84 | 1015.4 |
| 20260507052358 | 50 | 103 | 7.0 | 10.0 | 0.00 | 0.01 | 0.00 | 84 | 1015.4 |
| 20260507052258 | 50 | 101 | 7.0 | 8.0 | 0.00 | 0.01 | 0.00 | 84 | 1015.4 |
| 20260507052158 | 50 | 95 | 7.0 | 9.0 | 0.00 | 0.01 | 0.00 | 84 | 1015.4 |
| 20260507052058 | 50 | 100 | 8.0 | 12.0 | 0.00 | 0.01 | 0.00 | 84 | 1015.4 |
| 20260507051958 | 50 | 108 | 8.0 | 10.0 | 0.00 | 0.01 | 0.00 | 84 | 1015.4 |
| 20260507051857 | 50 | 105 | 7.0 | 12.0 | 0.00 | 0.01 | 0.00 | 84 | 1015.4 |
| 20260507051757 | 50 | 105 | 7.0 | 9.0 | 0.00 | 0.01 | 0.00 | 84 | 1015.4 |
| 20260507051657 | 50 | 103 | 8.0 | 10.0 | 0.00 | 0.01 | 0.00 | 84 | 1015.4 |
| 20260507051557 | 50 | 112 | 8.0 | 9.0 | 0.00 | 0.01 | 0.00 | 84 | 1015.3 |
| 20260507051457 | 50 | 102 | 8.0 | 12.0 | 0.00 | 0.01 | 0.00 | 84 | 1015.3 |
| 20260507051357 | 50 | 105 | 8.0 | 12.0 | 0.00 | 0.01 | 0.00 | 84 | 1015.3 |
| 20260507051257 | 50 | 101 | 8.0 | 10.0 | 0.00 | 0.01 | 0.00 | 84 | 1015.3 |
| 20260507051157 | 50 | 92 | 7.0 | 10.0 | 0.00 | 0.01 | 0.00 | 84 | 1015.3 |
| 20260507051057 | 50 | 103 | 6.0 | 12.0 | 0.00 | 0.01 | 0.00 | 84 | 1015.3 |
| 20260507050957 | 50 | 100 | 6.0 | 6.0 | 0.00 | 0.01 | 0.00 | 84 | 1015.3 |
| 20260507050857 | 50 | 91 | 6.0 | 7.0 | 0.00 | 0.01 | 0.00 | 84 | 1015.3 |
| 20260507050757 | 50 | 96 | 7.0 | 8.0 | 0.00 | 0.01 | 0.00 | 84 | 1015.3 |
| 20260507050657 | 50 | 89 | 8.0 | 9.0 | 0.00 | 0.01 | 0.00 | 84 | 1015.3 |
| 20260507050557 | 50 | 92 | 8.0 | 12.0 | 0.00 | 0.01 | 0.00 | 83 | 1015.3 |
| 20260507050457 | 50 | 102 | 7.0 | 10.0 | 0.00 | 0.01 | 0.00 | 83 | 1015.3 |
| 20260507050356 | 50 | 87 | 6.0 | 8.0 | 0.00 | 0.01 | 0.00 | 83 | 1015.3 |
| 20260507050256 | 50 | 90 | 6.0 | 7.0 | 0.00 | 0.01 | 0.00 | 83 | 1015.4 |
| 20260507050156 | 50 | 91 | 6.0 | 8.0 | 0.00 | 0.01 | 0.00 | 83 | 1015.4 |
| 20260507050056 | 50 | 104 | 6.0 | 8.0 | 0.00 | 0.01 | 0.00 | 83 | 1015.3 |
| 20260507045956 | 50 | 94 | 6.0 | 8.0 | 0.00 | 0.01 | 0.00 | 83 | 1015.3 |
| 20260507045826 | 50 | 90 | 6.0 | 8.0 | 0.00 | 0.01 | 0.00 | 83 | 1015.3 |
| 20260507045726 | 50 | 108 | 7.0 | 7.0 | 0.00 | 0.01 | 0.00 | 83 | 1015.3 |
| 20260507045626 | 50 | 89 | 7.0 | 9.0 | 0.00 | 0.01 | 0.00 | 83 | 1015.3 |
| 20260507045526 | 50 | 100 | 7.0 | 10.0 | 0.00 | 0.01 | 0.00 | 83 | 1015.4 |
| 20260507045426 | 50 | 83 | 7.0 | 9.0 | 0.00 | 0.01 | 0.00 | 83 | 1015.4 |
| 20260507045326 | 50 | 95 | 6.0 | 9.0 | 0.00 | 0.01 | 0.00 | 83 | 1015.3 |
| 20260507045226 | 50 | 92 | 6.0 | 7.0 | 0.00 | 0.01 | 0.00 | 83 | 1015.3 |
| 20260507045126 | 49 | 90 | 7.0 | 8.0 | 0.00 | 0.01 | 0.00 | 83 | 1015.3 |
| 20260507045026 | 50 | 92 | 7.0 | 8.0 | 0.00 | 0.01 | 0.00 | 83 | 1015.3 |
| 20260507044926 | 49 | 89 | 7.0 | 9.0 | 0.00 | 0.01 | 0.00 | 83 | 1015.3 |
| 20260507044826 | 49 | 85 | 6.0 | 9.0 | 0.00 | 0.01 | 0.00 | 82 | 1015.3 |
| 20260507044725 | 50 | 81 | 7.0 | 7.0 | 0.00 | 0.01 | 0.00 | 82 | 1015.2 |
| 20260507044625 | 50 | 78 | 6.0 | 8.0 | 0.00 | 0.01 | 0.00 | 82 | 1015.3 |
| 20260507044525 | 50 | 81 | 6.0 | 8.0 | 0.00 | 0.01 | 0.00 | 82 | 1015.2 |
| 20260507044425 | 50 | 87 | 6.0 | 8.0 | 0.00 | 0.01 | 0.00 | 82 | 1015.2 |
| 20260507044325 | 50 | 91 | 7.0 | 9.0 | 0.00 | 0.01 | 0.00 | 82 | 1015.2 |
| 20260507044225 | 50 | 92 | 7.0 | 9.0 | 0.00 | 0.01 | 0.00 | 82 | 1015.3 |
| 20260507044125 | 50 | 91 | 8.0 | 10.0 | 0.00 | 0.01 | 0.00 | 82 | 1015.3 |
| 20260507044025 | 50 | 91 | 7.0 | 9.0 | 0.00 | 0.01 | 0.00 | 82 | 1015.2 |
| 20260507043925 | 50 | 92 | 8.0 | 9.0 | 0.00 | 0.01 | 0.00 | 82 | 1015.2 |
| 20260507043825 | 50 | 93 | 8.0 | 10.0 | 0.00 | 0.01 | 0.00 | 82 | 1015.2 |
| 20260507043725 | 50 | 102 | 7.0 | 9.0 | 0.00 | 0.01 | 0.00 | 82 | 1015.2 |
| 20260507043625 | 50 | 94 | 7.0 | 8.0 | 0.00 | 0.01 | 0.00 | 82 | 1015.2 |
| 20260507043525 | 50 | 101 | 7.0 | 8.0 | 0.00 | 0.01 | 0.00 | 82 | 1015.2 |
| 20260507043425 | 50 | 102 | 7.0 | 9.0 | 0.00 | 0.02 | 0.00 | 82 | 1015.2 |
| 20260507043325 | 50 | 97 | 7.0 | 8.0 | 0.00 | 0.02 | 0.00 | 82 | 1015.2 |
| 20260507043224 | 50 | 90 | 7.0 | 8.0 | 0.00 | 0.02 | 0.00 | 82 | 1015.2 |
| 20260507043124 | 50 | 91 | 8.0 | 9.0 | 0.00 | 0.02 | 0.00 | 82 | 1015.2 |
| 20260507043024 | 49 | 86 | 7.0 | 10.0 | 0.00 | 0.02 | 0.00 | 81 | 1015.2 |
| 20260507042924 | 49 | 109 | 7.0 | 9.0 | 0.00 | 0.02 | 0.00 | 81 | 1015.1 |
| 20260507042824 | 49 | 102 | 7.0 | 7.0 | 0.00 | 0.02 | 0.00 | 81 | 1015.2 |
| 20260507042724 | 49 | 84 | 7.0 | 9.0 | 0.00 | 0.02 | 0.00 | 81 | 1015.2 |
| 20260507042624 | 50 | 85 | 6.0 | 8.0 | 0.00 | 0.02 | 0.00 | 81 | 1015.1 |
| 20260507042524 | 50 | 95 | 7.0 | 8.0 | 0.00 | 0.02 | 0.00 | 81 | 1015.2 |
| 20260507042424 | 50 | 90 | 8.0 | 9.0 | 0.00 | 0.02 | 0.00 | 81 | 1015.2 |
| 20260507042324 | 50 | 83 | 8.0 | 10.0 | 0.00 | 0.02 | 0.00 | 81 | 1015.1 |
| 20260507042224 | 50 | 90 | 7.0 | 10.0 | 0.00 | 0.02 | 0.00 | 81 | 1015.1 |
| 20260507042054 | 50 | 90 | 7.0 | 10.0 | 0.00 | 0.02 | 0.00 | 81 | 1015.1 |
| 20260507041954 | 50 | 93 | 6.0 | 9.0 | 0.00 | 0.02 | 0.00 | 81 | 1015.1 |
| 20260507041853 | 50 | 94 | 7.0 | 8.0 | 0.00 | 0.02 | 0.00 | 81 | 1015.1 |
| 20260507041753 | 50 | 93 | 7.0 | 9.0 | 0.00 | 0.02 | 0.00 | 81 | 1015.1 |
| 20260507041623 | 50 | 91 | 7.0 | 9.0 | 0.00 | 0.02 | 0.00 | 81 | 1015.1 |
| 20260507041523 | 50 | 85 | 8.0 | 10.0 | 0.00 | 0.02 | 0.00 | 81 | 1015.1 |
| 20260507041423 | 50 | 91 | 8.0 | 10.0 | 0.00 | 0.02 | 0.00 | 80 | 1015.1 |
| 20260507041323 | 50 | 88 | 8.0 | 10.0 | 0.00 | 0.02 | 0.00 | 80 | 1015.1 |
| 20260507041223 | 50 | 100 | 8.0 | 10.0 | 0.00 | 0.02 | 0.00 | 80 | 1015.1 |
| 20260507041123 | 50 | 94 | 8.0 | 10.0 | 0.00 | 0.02 | 0.00 | 80 | 1015.1 |
| 20260507041023 | 50 | 97 | 8.0 | 9.0 | 0.00 | 0.02 | 0.00 | 80 | 1015.1 |
| 20260507040853 | 50 | 101 | 7.0 | 8.0 | 0.00 | 0.02 | 0.00 | 80 | 1015.1 |
| 20260507040753 | 50 | 92 | 8.0 | 9.0 | 0.00 | 0.02 | 0.00 | 80 | 1015.0 |
| 20260507040653 | 50 | 91 | 8.0 | 9.0 | 0.00 | 0.02 | 0.00 | 80 | 1015.1 |
| 20260507040553 | 50 | 92 | 8.0 | 10.0 | 0.00 | 0.02 | 0.00 | 79 | 1015.1 |
| 20260507040452 | 50 | 84 | 7.0 | 9.0 | 0.00 | 0.02 | 0.00 | 80 | 1015.0 |
| 20260507040352 | 50 | 91 | 8.0 | 9.0 | 0.00 | 0.02 | 0.00 | 79 | 1015.1 |
| 20260507040252 | 50 | 90 | 8.0 | 10.0 | 0.00 | 0.02 | 0.00 | 79 | 1015.1 |
| 20260507040152 | 50 | 91 | 7.0 | 10.0 | 0.00 | 0.02 | 0.00 | 79 | 1015.1 |
| 20260507040052 | 50 | 89 | 8.0 | 9.0 | 0.00 | 0.02 | 0.00 | 79 | 1015.1 |
| 20260507035952 | 50 | 90 | 8.0 | 9.0 | 0.00 | 0.02 | 0.00 | 79 | 1015.1 |
| 20260507035852 | 50 | 87 | 8.0 | 12.0 | 0.00 | 0.02 | 0.00 | 79 | 1015.0 |
| 20260507035752 | 50 | 83 | 9.0 | 12.0 | 0.00 | 0.02 | 0.00 | 79 | 1015.0 |
| 20260507035652 | 50 | 87 | 9.0 | 13.0 | 0.00 | 0.02 | 0.00 | 79 | 1015.0 |
| 20260507035552 | 50 | 90 | 8.0 | 10.0 | 0.00 | 0.02 | 0.00 | 79 | 1015.1 |
| 20260507035452 | 50 | 90 | 8.0 | 10.0 | 0.00 | 0.02 | 0.00 | 79 | 1015.0 |
| 20260507035352 | 50 | 102 | 8.0 | 12.0 | 0.00 | 0.02 | 0.00 | 79 | 1015.0 |
| 20260507035252 | 50 | 91 | 8.0 | 10.0 | 0.00 | 0.02 | 0.00 | 79 | 1015.0 |
| 20260507035152 | 50 | 92 | 8.0 | 9.0 | 0.00 | 0.02 | 0.00 | 79 | 1015.0 |
| 20260507035052 | 50 | 94 | 8.0 | 10.0 | 0.00 | 0.02 | 0.00 | 79 | 1015.0 |
| 20260507034952 | 50 | 98 | 7.0 | 12.0 | 0.00 | 0.02 | 0.00 | 79 | 1015.0 |
| 20260507034852 | 50 | 98 | 7.0 | 8.0 | 0.00 | 0.02 | 0.00 | 79 | 1015.0 |
| 20260507034751 | 50 | 91 | 9.0 | 10.0 | 0.00 | 0.02 | 0.00 | 79 | 1015.0 |
| 20260507034651 | 50 | 101 | 8.0 | 12.0 | 0.00 | 0.02 | 0.00 | 79 | 1015.0 |
| 20260507034551 | 50 | 103 | 7.0 | 9.0 | 0.00 | 0.02 | 0.00 | 79 | 1015.0 |
| 20260507034451 | 50 | 107 | 8.0 | 9.0 | 0.00 | 0.02 | 0.00 | 79 | 1015.0 |
| 20260507034351 | 50 | 97 | 8.0 | 12.0 | 0.00 | 0.02 | 0.00 | 79 | 1015.0 |
| 20260507034251 | 50 | 90 | 8.0 | 10.0 | 0.00 | 0.02 | 0.00 | 79 | 1015.0 |
| 20260507034151 | 50 | 87 | 8.0 | 10.0 | 0.00 | 0.02 | 0.00 | 79 | 1015.0 |
| 20260507034051 | 50 | 85 | 8.0 | 10.0 | 0.00 | 0.02 | 0.00 | 79 | 1015.0 |
| 20260507033951 | 50 | 89 | 7.0 | 12.0 | 0.00 | 0.02 | 0.00 | 79 | 1015.0 |
| 20260507033851 | 50 | 92 | 9.0 | 10.0 | 0.00 | 0.02 | 0.00 | 79 | 1015.0 |
| 20260507033751 | 50 | 91 | 8.0 | 12.0 | 0.00 | 0.02 | 0.00 | 79 | 1015.0 |
| 20260507033651 | 50 | 88 | 8.0 | 9.0 | 0.00 | 0.02 | 0.00 | 79 | 1014.9 |
| 20260507033551 | 50 | 87 | 7.0 | 9.0 | 0.00 | 0.02 | 0.00 | 79 | 1015.0 |
| 20260507033451 | 49 | 87 | 8.0 | 9.0 | 0.00 | 0.02 | 0.00 | 79 | 1014.9 |
| 20260507033351 | 50 | 83 | 7.0 | 10.0 | 0.00 | 0.02 | 0.00 | 79 | 1015.0 |
| 20260507033251 | 50 | 84 | 7.0 | 9.0 | 0.00 | 0.02 | 0.00 | 79 | 1014.9 |
| 20260507033151 | 50 | 82 | 7.0 | 10.0 | 0.00 | 0.02 | 0.00 | 79 | 1015.0 |
| 20260507033050 | 50 | 88 | 7.0 | 9.0 | 0.00 | 0.02 | 0.00 | 79 | 1014.9 |
| 20260507032950 | 50 | 82 | 6.0 | 8.0 | 0.00 | 0.02 | 0.00 | 79 | 1014.9 |
| 20260507032850 | 50 | 79 | 7.0 | 7.0 | 0.00 | 0.02 | 0.00 | 79 | 1014.9 |
| 20260507032750 | 50 | 82 | 7.0 | 9.0 | 0.00 | 0.02 | 0.00 | 79 | 1014.9 |
| 20260507032650 | 50 | 81 | 7.0 | 8.0 | 0.00 | 0.02 | 0.00 | 79 | 1014.9 |
| 20260507032550 | 50 | 73 | 7.0 | 9.0 | 0.00 | 0.02 | 0.00 | 78 | 1015.0 |
| 20260507032450 | 50 | 82 | 8.0 | 9.0 | 0.00 | 0.02 | 0.00 | 78 | 1014.9 |
| 20260507032350 | 50 | 82 | 8.0 | 10.0 | 0.00 | 0.02 | 0.00 | 78 | 1015.0 |
| 20260507032250 | 50 | 78 | 7.0 | 9.0 | 0.00 | 0.02 | 0.00 | 78 | 1015.0 |
| 20260507032150 | 50 | 84 | 7.0 | 9.0 | 0.00 | 0.02 | 0.00 | 78 | 1015.0 |
| 20260507032050 | 50 | 77 | 6.0 | 8.0 | 0.00 | 0.02 | 0.00 | 78 | 1015.0 |
| 20260507031950 | 50 | 84 | 7.0 | 8.0 | 0.00 | 0.02 | 0.00 | 78 | 1015.0 |
| 20260507031850 | 50 | 87 | 7.0 | 9.0 | 0.00 | 0.02 | 0.00 | 78 | 1014.9 |
| 20260507031749 | 50 | 92 | 7.0 | 9.0 | 0.00 | 0.02 | 0.00 | 78 | 1014.9 |
| 20260507031649 | 50 | 86 | 8.0 | 9.0 | 0.00 | 0.02 | 0.00 | 78 | 1015.0 |
| 20260507031549 | 50 | 83 | 8.0 | 10.0 | 0.00 | 0.02 | 0.00 | 78 | 1014.9 |
| 20260507031449 | 50 | 85 | 8.0 | 10.0 | 0.00 | 0.02 | 0.00 | 78 | 1015.0 |
| 20260507031349 | 50 | 83 | 7.0 | 10.0 | 0.00 | 0.02 | 0.00 | 78 | 1014.9 |
| 20260507031249 | 50 | 83 | 8.0 | 10.0 | 0.00 | 0.02 | 0.00 | 78 | 1015.0 |
| 20260507031149 | 50 | 83 | 8.0 | 12.0 | 0.00 | 0.02 | 0.00 | 78 | 1015.0 |
| 20260507031049 | 50 | 85 | 7.0 | 12.0 | 0.00 | 0.02 | 0.00 | 78 | 1015.0 |
| 20260507030949 | 50 | 87 | 8.0 | 9.0 | 0.00 | 0.02 | 0.00 | 78 | 1015.0 |
| 20260507030849 | 50 | 92 | 7.0 | 10.0 | 0.00 | 0.02 | 0.00 | 79 | 1014.9 |
| 20260507030749 | 50 | 86 | 7.0 | 7.0 | 0.00 | 0.02 | 0.00 | 79 | 1015.0 |
| 20260507030649 | 50 | 83 | 7.0 | 9.0 | 0.00 | 0.02 | 0.00 | 79 | 1014.9 |
| 20260507030549 | 50 | 86 | 7.0 | 9.0 | 0.00 | 0.02 | 0.00 | 79 | 1014.9 |
| 20260507030449 | 49 | 87 | 7.0 | 8.0 | 0.00 | 0.02 | 0.00 | 79 | 1014.9 |
| 20260507030349 | 49 | 80 | 6.0 | 9.0 | 0.00 | 0.02 | 0.00 | 79 | 1014.9 |
| 20260507030248 | 49 | 81 | 7.0 | 8.0 | 0.00 | 0.02 | 0.00 | 79 | 1014.9 |
| 20260507030148 | 49 | 82 | 7.0 | 9.0 | 0.00 | 0.02 | 0.00 | 79 | 1014.9 |
| 20260507030048 | 49 | 77 | 6.0 | 10.0 | 0.00 | 0.02 | 0.00 | 79 | 1015.0 |
| 20260507025918 | 49 | 85 | 7.0 | 8.0 | 0.00 | 0.02 | 0.00 | 79 | 1015.0 |
| 20260507025818 | 49 | 82 | 7.0 | 8.0 | 0.00 | 0.02 | 0.00 | 79 | 1015.0 |
| 20260507025718 | 49 | 76 | 7.0 | 10.0 | 0.00 | 0.02 | 0.00 | 79 | 1014.9 |
| 20260507025618 | 49 | 78 | 7.0 | 9.0 | 0.00 | 0.02 | 0.00 | 79 | 1014.9 |
| 20260507025518 | 49 | 78 | 7.0 | 9.0 | 0.00 | 0.02 | 0.00 | 79 | 1014.9 |
| 20260507025418 | 49 | 80 | 6.0 | 8.0 | 0.00 | 0.02 | 0.00 | 79 | 1014.9 |
| 20260507025248 | 49 | 79 | 6.0 | 7.0 | 0.00 | 0.02 | 0.00 | 79 | 1014.9 |
| 20260507025148 | 50 | 78 | 6.0 | 7.0 | 0.00 | 0.02 | 0.00 | 79 | 1014.9 |
| 20260507025048 | 50 | 84 | 6.0 | 8.0 | 0.00 | 0.02 | 0.00 | 79 | 1014.9 |
| 20260507024948 | 50 | 81 | 7.0 | 9.0 | 0.00 | 0.02 | 0.00 | 79 | 1014.9 |
| 20260507024818 | 50 | 81 | 6.0 | 8.0 | 0.00 | 0.02 | 0.00 | 79 | 1014.9 |
| 20260507024718 | 50 | 87 | 6.0 | 8.0 | 0.00 | 0.02 | 0.00 | 78 | 1014.9 |
| 20260507024617 | 50 | 85 | 6.0 | 7.0 | 0.00 | 0.02 | 0.00 | 79 | 1014.9 |
| 20260507024517 | 50 | 82 | 6.0 | 8.0 | 0.00 | 0.02 | 0.00 | 79 | 1014.9 |
| 20260507024417 | 50 | 83 | 6.0 | 8.0 | 0.00 | 0.02 | 0.00 | 78 | 1014.9 |
| 20260507024317 | 50 | 78 | 6.0 | 7.0 | 0.00 | 0.02 | 0.00 | 78 | 1014.9 |
| 20260507024217 | 50 | 81 | 6.0 | 8.0 | 0.00 | 0.02 | 0.00 | 78 | 1014.9 |
| 20260507024117 | 50 | 82 | 6.0 | 8.0 | 0.00 | 0.02 | 0.00 | 78 | 1014.9 |
| 20260507024017 | 50 | 74 | 7.0 | 8.0 | 0.00 | 0.02 | 0.00 | 78 | 1014.9 |
| 20260507023917 | 50 | 82 | 7.0 | 9.0 | 0.00 | 0.02 | 0.00 | 78 | 1014.9 |
| 20260507023817 | 50 | 83 | 6.0 | 10.0 | 0.00 | 0.02 | 0.00 | 78 | 1014.9 |
| 20260507023717 | 50 | 88 | 6.0 | 7.0 | 0.00 | 0.02 | 0.00 | 78 | 1014.9 |
| 20260507023617 | 50 | 91 | 6.0 | 6.0 | 0.00 | 0.02 | 0.00 | 78 | 1014.9 |
| 20260507023517 | 50 | 90 | 5.0 | 8.0 | 0.00 | 0.02 | 0.00 | 78 | 1014.9 |
| 20260507023417 | 50 | 91 | 5.0 | 7.0 | 0.00 | 0.02 | 0.00 | 78 | 1014.9 |
| 20260507023317 | 50 | 92 | 6.0 | 7.0 | 0.00 | 0.02 | 0.00 | 77 | 1014.9 |
| 20260507023216 | 50 | 85 | 6.0 | 7.0 | 0.00 | 0.02 | 0.00 | 77 | 1014.8 |
| 20260507023116 | 50 | 87 | 6.0 | 7.0 | 0.00 | 0.02 | 0.00 | 77 | 1014.9 |
| 20260507023016 | 50 | 88 | 6.0 | 7.0 | 0.00 | 0.02 | 0.00 | 77 | 1014.9 |
| 20260507022916 | 50 | 91 | 6.0 | 7.0 | 0.00 | 0.02 | 0.00 | 77 | 1014.9 |
| 20260507022816 | 50 | 93 | 6.0 | 7.0 | 0.00 | 0.02 | 0.00 | 77 | 1014.9 |
| 20260507022716 | 50 | 89 | 5.0 | 7.0 | 0.00 | 0.02 | 0.00 | 77 | 1014.9 |
| 20260507022616 | 50 | 94 | 5.0 | 6.0 | 0.00 | 0.02 | 0.00 | 77 | 1014.9 |
| 20260507022516 | 50 | 96 | 5.0 | 7.0 | 0.00 | 0.02 | 0.00 | 77 | 1014.9 |
| 20260507022416 | 50 | 96 | 6.0 | 8.0 | 0.00 | 0.02 | 0.00 | 77 | 1014.9 |
| 20260507022316 | 50 | 91 | 6.0 | 8.0 | 0.00 | 0.02 | 0.00 | 77 | 1014.9 |
| 20260507022216 | 50 | 88 | 5.0 | 7.0 | 0.00 | 0.02 | 0.00 | 77 | 1014.8 |
| 20260507022116 | 50 | 89 | 5.0 | 7.0 | 0.00 | 0.02 | 0.00 | 77 | 1014.9 |
| 20260507022016 | 50 | 95 | 6.0 | 6.0 | 0.00 | 0.02 | 0.00 | 77 | 1014.9 |
| 20260507021916 | 50 | 103 | 6.0 | 7.0 | 0.00 | 0.02 | 0.00 | 77 | 1014.9 |
| 20260507021816 | 50 | 96 | 5.0 | 7.0 | 0.00 | 0.02 | 0.00 | 77 | 1014.9 |
| 20260507021716 | 50 | 96 | 5.0 | 6.0 | 0.00 | 0.02 | 0.00 | 77 | 1014.9 |
| 20260507021615 | 50 | 97 | 6.0 | 7.0 | 0.00 | 0.02 | 0.00 | 78 | 1014.9 |
| 20260507021515 | 50 | 99 | 6.0 | 7.0 | 0.00 | 0.02 | 0.00 | 78 | 1014.9 |
| 20260507021415 | 50 | 87 | 5.0 | 7.0 | 0.00 | 0.02 | 0.00 | 78 | 1014.9 |
| 20260507021316 | 50 | 88 | 5.0 | 6.0 | 0.00 | 0.02 | 0.00 | 78 | 1014.9 |
| 20260507021215 | 50 | 88 | 5.0 | 8.0 | 0.00 | 0.02 | 0.00 | 78 | 1014.9 |
| 20260507021115 | 50 | 82 | 5.0 | 7.0 | 0.00 | 0.02 | 0.00 | 78 | 1014.8 |
| 20260507021015 | 50 | 76 | 5.0 | 7.0 | 0.00 | 0.02 | 0.00 | 78 | 1014.8 |
| 20260507020915 | 50 | 75 | 5.0 | 6.0 | 0.00 | 0.02 | 0.00 | 78 | 1014.9 |
| 20260507020815 | 50 | 73 | 5.0 | 6.0 | 0.00 | 0.02 | 0.00 | 78 | 1014.9 |
| 20260507020715 | 50 | 78 | 5.0 | 6.0 | 0.00 | 0.02 | 0.00 | 78 | 1014.9 |
| 20260507020615 | 50 | 78 | 5.0 | 7.0 | 0.00 | 0.02 | 0.00 | 78 | 1014.9 |
| 20260507020515 | 50 | 85 | 6.0 | 7.0 | 0.00 | 0.02 | 0.00 | 78 | 1014.9 |
| 20260507020415 | 50 | 82 | 5.0 | 7.0 | 0.00 | 0.02 | 0.00 | 77 | 1014.9 |
| 20260507020315 | 50 | 84 | 3.0 | 6.0 | 0.00 | 0.02 | 0.00 | 77 | 1014.9 |
| 20260507020215 | 50 | 85 | 3.0 | 5.0 | 0.00 | 0.02 | 0.00 | 77 | 1014.9 |
| 20260507020115 | 50 | 85 | 5.0 | 3.0 | 0.00 | 0.02 | 0.00 | 77 | 1014.9 |
| 20260507020015 | 50 | 84 | 5.0 | 6.0 | 0.00 | 0.02 | 0.00 | 77 | 1014.9 |
| 20260507015915 | 50 | 92 | 3.0 | 5.0 | 0.00 | 0.02 | 0.00 | 77 | 1014.9 |
| 20260507015814 | 50 | 88 | 3.0 | 5.0 | 0.00 | 0.02 | 0.00 | 77 | 1014.9 |
| 20260507015714 | 50 | 87 | 3.0 | 5.0 | 0.00 | 0.02 | 0.00 | 77 | 1014.9 |
| 20260507015614 | 50 | 87 | 5.0 | 5.0 | 0.00 | 0.02 | 0.00 | 77 | 1014.9 |
| 20260507015514 | 50 | 84 | 5.0 | 5.0 | 0.00 | 0.02 | 0.00 | 77 | 1014.9 |
| 20260507015414 | 50 | 83 | 5.0 | 6.0 | 0.00 | 0.02 | 0.00 | 77 | 1014.9 |
| 20260507015314 | 50 | 82 | 5.0 | 6.0 | 0.00 | 0.02 | 0.00 | 77 | 1015.0 |
| 20260507015214 | 50 | 81 | 5.0 | 6.0 | 0.00 | 0.02 | 0.00 | 77 | 1014.9 |
| 20260507015114 | 50 | 78 | 5.0 | 5.0 | 0.00 | 0.02 | 0.00 | 77 | 1014.9 |
| 20260507015014 | 50 | 84 | 5.0 | 5.0 | 0.00 | 0.02 | 0.00 | 77 | 1014.9 |
| 20260507014914 | 50 | 80 | 3.0 | 5.0 | 0.00 | 0.02 | 0.00 | 77 | 1014.9 |
| 20260507014814 | 50 | 76 | 5.0 | 3.0 | 0.00 | 0.02 | 0.00 | 77 | 1014.9 |
| 20260507014714 | 50 | 80 | 3.0 | 5.0 | 0.00 | 0.02 | 0.00 | 77 | 1014.9 |
| 20260507014614 | 50 | 80 | 3.0 | 3.0 | 0.00 | 0.02 | 0.00 | 77 | 1014.9 |
| 20260507014514 | 50 | 76 | 5.0 | 5.0 | 0.00 | 0.02 | 0.00 | 77 | 1014.9 |
| 20260507014413 | 50 | 76 | 5.0 | 6.0 | 0.00 | 0.02 | 0.00 | 77 | 1014.9 |
| 20260507014313 | 50 | 77 | 5.0 | 5.0 | 0.00 | 0.02 | 0.00 | 77 | 1014.9 |
| 20260507014213 | 50 | 81 | 3.0 | 6.0 | 0.00 | 0.02 | 0.00 | 77 | 1014.9 |
| 20260507014113 | 50 | 81 | 3.0 | 3.0 | 0.00 | 0.02 | 0.00 | 77 | 1014.9 |
| 20260507014013 | 50 | 83 | 3.0 | 5.0 | 0.00 | 0.02 | 0.00 | 78 | 1014.9 |
| 20260507013913 | 50 | 81 | 3.0 | 3.0 | 0.00 | 0.02 | 0.00 | 78 | 1014.9 |
| 20260507013813 | 50 | 76 | 3.0 | 3.0 | 0.00 | 0.02 | 0.00 | 78 | 1014.9 |
| 20260507013713 | 50 | 75 | 3.0 | 5.0 | 0.00 | 0.02 | 0.00 | 78 | 1014.9 |
| 20260507013613 | 50 | 74 | 5.0 | 5.0 | 0.00 | 0.02 | 0.00 | 78 | 1014.9 |
| 20260507013513 | 50 | 72 | 5.0 | 6.0 | 0.00 | 0.02 | 0.00 | 78 | 1014.9 |
| 20260507013413 | 50 | 82 | 3.0 | 5.0 | 0.00 | 0.02 | 0.00 | 78 | 1014.9 |
| 20260507013312 | 50 | 71 | 3.0 | 3.0 | 0.00 | 0.02 | 0.00 | 78 | 1014.9 |
| 20260507013212 | 50 | 71 | 5.0 | 6.0 | 0.00 | 0.02 | 0.00 | 79 | 1014.9 |
| 20260507013112 | 50 | 68 | 5.0 | 6.0 | 0.00 | 0.02 | 0.00 | 79 | 1014.9 |
| 20260507013012 | 50 | 68 | 3.0 | 6.0 | 0.00 | 0.02 | 0.00 | 79 | 1014.9 |
| 20260507012912 | 50 | 67 | 3.0 | 3.0 | 0.00 | 0.02 | 0.00 | 79 | 1015.0 |
| 20260507012812 | 50 | 67 | 3.0 | 3.0 | 0.00 | 0.02 | 0.00 | 79 | 1014.9 |
| 20260507012712 | 50 | 68 | 3.0 | 3.0 | 0.00 | 0.02 | 0.00 | 78 | 1014.9 |
| 20260507012612 | 50 | 65 | 3.0 | 3.0 | 0.00 | 0.02 | 0.00 | 78 | 1014.9 |
| 20260507012512 | 50 | 63 | 5.0 | 5.0 | 0.00 | 0.02 | 0.00 | 78 | 1015.0 |
| 20260507012412 | 50 | 62 | 5.0 | 5.0 | 0.00 | 0.02 | 0.00 | 78 | 1014.9 |
| 20260507012312 | 50 | 62 | 5.0 | 5.0 | 0.00 | 0.02 | 0.00 | 78 | 1014.9 |
| 20260507012212 | 50 | 62 | 3.0 | 5.0 | 0.00 | 0.02 | 0.00 | 78 | 1014.9 |
| 20260507012112 | 50 | 59 | 2.0 | 3.0 | 0.00 | 0.02 | 0.00 | 78 | 1014.9 |
| 20260507012012 | 50 | 55 | 2.0 | 3.0 | 0.00 | 0.02 | 0.00 | 78 | 1014.9 |
| 20260507011912 | 50 | 56 | 2.0 | 2.0 | 0.00 | 0.02 | 0.00 | 78 | 1014.9 |
| 20260507011812 | 50 | 52 | 2.0 | 2.0 | 0.00 | 0.02 | 0.00 | 78 | 1014.9 |
| 20260507011711 | 50 | 51 | 2.0 | 2.0 | 0.00 | 0.02 | 0.00 | 78 | 1015.0 |
| 20260507011611 | 50 | 51 | 2.0 | 2.0 | 0.00 | 0.02 | 0.00 | 78 | 1015.0 |
| 20260507011511 | 50 | 54 | 2.0 | 2.0 | 0.00 | 0.02 | 0.00 | 78 | 1015.0 |
| 20260507011411 | 50 | 57 | 2.0 | 3.0 | 0.00 | 0.02 | 0.00 | 78 | 1015.0 |
| 20260507011311 | 50 | 57 | 2.0 | 3.0 | 0.00 | 0.02 | 0.00 | 78 | 1015.0 |
| 20260507011211 | 50 | 58 | 2.0 | 2.0 | 0.00 | 0.02 | 0.00 | 78 | 1015.0 |
| 20260507011111 | 50 | 56 | 2.0 | 3.0 | 0.00 | 0.02 | 0.00 | 78 | 1015.0 |
| 20260507011011 | 50 | 58 | 2.0 | 3.0 | 0.00 | 0.02 | 0.00 | 79 | 1015.0 |
| 20260507010911 | 50 | 56 | 2.0 | 3.0 | 0.00 | 0.02 | 0.00 | 79 | 1015.0 |
| 20260507010811 | 50 | 55 | 2.0 | 3.0 | 0.00 | 0.02 | 0.00 | 80 | 1015.0 |
| 20260507010711 | 50 | 56 | 2.0 | 2.0 | 0.00 | 0.02 | 0.00 | 80 | 1015.0 |
| 20260507010611 | 50 | 58 | 2.0 | 3.0 | 0.00 | 0.02 | 0.00 | 80 | 1015.0 |
| 20260507010511 | 50 | 57 | 2.0 | 2.0 | 0.00 | 0.02 | 0.00 | 80 | 1015.0 |
| 20260507010341 | 50 | 55 | 2.0 | 2.0 | 0.00 | 0.02 | 0.00 | 81 | 1015.0 |
| 20260507010241 | 50 | 55 | 1.0 | 2.0 | 0.00 | 0.02 | 0.00 | 81 | 1015.0 |
| 20260507010141 | 50 | 54 | 1.0 | 2.0 | 0.00 | 0.02 | 0.00 | 81 | 1015.0 |
| 20260507010040 | 50 | 54 | 1.0 | 2.0 | 0.00 | 0.02 | 0.00 | 81 | 1015.0 |
| 20260507005940 | 50 | 53 | 1.0 | 3.0 | 0.00 | 0.02 | 0.00 | 81 | 1015.0 |
| 20260507005840 | 50 | 52 | 1.0 | 2.0 | 0.00 | 0.02 | 0.00 | 81 | 1015.0 |
| 20260507005740 | 50 | 52 | 1.0 | 2.0 | 0.00 | 0.02 | 0.00 | 81 | 1014.9 |
| 20260507005640 | 50 | 54 | 1.0 | 2.0 | 0.00 | 0.02 | 0.00 | 82 | 1014.9 |
| 20260507005540 | 50 | 55 | 1.0 | 1.0 | 0.00 | 0.02 | 0.00 | 82 | 1015.0 |
| 20260507005440 | 50 | 55 | 1.0 | 2.0 | 0.00 | 0.02 | 0.00 | 82 | 1015.0 |
| 20260507005340 | 50 | 55 | 1.0 | 2.0 | 0.00 | 0.02 | 0.00 | 82 | 1015.0 |
| 20260507005240 | 51 | 42 | 1.0 | 1.0 | 0.00 | 0.02 | 0.00 | 82 | 1015.0 |
| 20260507005140 | 50 | 42 | 1.0 | 2.0 | 0.00 | 0.02 | 0.00 | 82 | 1015.0 |
| 20260507005039 | 50 | 42 | 1.0 | 1.0 | 0.00 | 0.02 | 0.00 | 82 | 1015.0 |
| 20260507004939 | 50 | 42 | 1.0 | 1.0 | 0.00 | 0.02 | 0.00 | 82 | 1015.0 |
| 20260507004839 | 50 | 42 | 1.0 | 1.0 | 0.00 | 0.02 | 0.00 | 82 | 1015.0 |
| 20260507004739 | 50 | 42 | 1.0 | 1.0 | 0.00 | 0.02 | 0.00 | 82 | 1015.0 |
| 20260507004639 | 50 | 42 | 1.0 | 1.0 | 0.00 | 0.02 | 0.00 | 82 | 1015.0 |
| 20260507004539 | 50 | 42 | 1.0 | 1.0 | 0.00 | 0.02 | 0.00 | 82 | 1015.0 |
| 20260507004439 | 51 | 42 | 1.0 | 1.0 | 0.00 | 0.02 | 0.00 | 82 | 1015.0 |
| 20260507004339 | 51 | 42 | 1.0 | 1.0 | 0.00 | 0.02 | 0.00 | 82 | 1015.0 |
| 20260507004239 | 51 | 42 | 1.0 | 1.0 | 0.00 | 0.02 | 0.00 | 82 | 1015.0 |
| 20260507004139 | 51 | 42 | 1.0 | 1.0 | 0.00 | 0.02 | 0.00 | 82 | 1015.0 |
| 20260507004039 | 51 | 42 | 1.0 | 1.0 | 0.00 | 0.02 | 0.00 | 82 | 1015.0 |
| 20260507003939 | 51 | 42 | 1.0 | 1.0 | 0.00 | 0.02 | 0.00 | 82 | 1015.0 |
| 20260507003839 | 51 | 42 | 1.0 | 1.0 | 0.00 | 0.02 | 0.00 | 82 | 1015.0 |
| 20260507003739 | 51 | 42 | 1.0 | 1.0 | 0.00 | 0.02 | 0.00 | 82 | 1015.0 |
| 20260507003638 | 51 | 42 | 2.0 | 2.0 | 0.00 | 0.02 | 0.00 | 82 | 1015.0 |
| 20260507003538 | 51 | 43 | 2.0 | 2.0 | 0.00 | 0.02 | 0.00 | 82 | 1015.0 |
| 20260507003438 | 51 | 50 | 2.0 | 3.0 | 0.00 | 0.02 | 0.00 | 82 | 1015.1 |
| 20260507003338 | 51 | 44 | 2.0 | 2.0 | 0.00 | 0.02 | 0.00 | 82 | 1015.0 |
| 20260507003238 | 51 | 42 | 1.0 | 2.0 | 0.00 | 0.02 | 0.00 | 82 | 1015.1 |
| 20260507003138 | 51 | 34 | 1.0 | 2.0 | 0.00 | 0.02 | 0.00 | 81 | 1015.0 |
| 20260507003038 | 51 | 34 | 2.0 | 2.0 | 0.00 | 0.02 | 0.00 | 81 | 1015.1 |
| 20260507002938 | 51 | 38 | 2.0 | 2.0 | 0.00 | 0.02 | 0.00 | 81 | 1015.1 |
| 20260507002838 | 51 | 43 | 2.0 | 3.0 | 0.00 | 0.02 | 0.00 | 81 | 1015.1 |
| 20260507002738 | 51 | 36 | 2.0 | 3.0 | 0.00 | 0.02 | 0.00 | 81 | 1015.1 |
| 20260507002638 | 51 | 30 | 3.0 | 3.0 | 0.00 | 0.02 | 0.00 | 81 | 1015.1 |
| 20260507002538 | 51 | 24 | 3.0 | 3.0 | 0.00 | 0.02 | 0.00 | 81 | 1015.1 |
| 20260507002438 | 51 | 29 | 3.0 | 3.0 | 0.00 | 0.02 | 0.00 | 81 | 1015.1 |
| 20260507002338 | 51 | 30 | 2.0 | 3.0 | 0.00 | 0.02 | 0.00 | 81 | 1015.1 |
| 20260507002237 | 51 | 29 | 1.0 | 2.0 | 0.00 | 0.02 | 0.00 | 81 | 1015.1 |
| 20260507002137 | 51 | 28 | 1.0 | 2.0 | 0.00 | 0.02 | 0.00 | 81 | 1015.1 |
| 20260507002037 | 51 | 45 | 1.0 | 1.0 | 0.00 | 0.02 | 0.00 | 81 | 1015.1 |
| 20260507001937 | 51 | 10 | 1.0 | 2.0 | 0.00 | 0.02 | 0.00 | 81 | 1015.1 |
| 20260507001837 | 51 | 11 | 1.0 | 2.0 | 0.00 | 0.02 | 0.00 | 81 | 1015.1 |
| 20260507001737 | 51 | 30 | 2.0 | 2.0 | 0.00 | 0.02 | 0.00 | 81 | 1015.2 |
| 20260507001637 | 51 | 29 | 2.0 | 3.0 | 0.00 | 0.02 | 0.00 | 81 | 1015.1 |
| 20260507001537 | 51 | 33 | 2.0 | 3.0 | 0.00 | 0.02 | 0.00 | 81 | 1015.1 |
| 20260507001437 | 51 | 34 | 2.0 | 3.0 | 0.00 | 0.02 | 0.00 | 81 | 1015.1 |
| 20260507001337 | 51 | 34 | 2.0 | 3.0 | 0.00 | 0.02 | 0.00 | 81 | 1015.1 |
| 20260507001237 | 51 | 26 | 2.0 | 3.0 | 0.00 | 0.02 | 0.00 | 81 | 1015.1 |
| 20260507001137 | 51 | 25 | 1.0 | 2.0 | 0.00 | 0.02 | 0.00 | 81 | 1015.1 |
| 20260507001037 | 51 | 11 | 1.0 | 2.0 | 0.00 | 0.02 | 0.00 | 81 | 1015.1 |
| 20260507000937 | 51 | 25 | 1.0 | 2.0 | 0.00 | 0.02 | 0.00 | 81 | 1015.1 |
| 20260507000837 | 51 | 35 | 2.0 | 2.0 | 0.00 | 0.02 | 0.00 | 81 | 1015.1 |
| 20260507000737 | 51 | 25 | 1.0 | 2.0 | 0.00 | 0.02 | 0.00 | 81 | 1015.1 |
| 20260507000637 | 51 | 22 | 2.0 | 3.0 | 0.00 | 0.02 | 0.00 | 81 | 1015.1 |
| 20260507000536 | 51 | 6 | 1.0 | 2.0 | 0.00 | 0.02 | 0.00 | 81 | 1015.1 |
| 20260507000436 | 51 | 32 | 2.0 | 2.0 | 0.00 | 0.02 | 0.00 | 81 | 1015.1 |
| 20260507000336 | 51 | 23 | 2.0 | 2.0 | 0.00 | 0.02 | 0.00 | 81 | 1015.1 |
| 20260507000236 | 51 | 22 | 2.0 | 3.0 | 0.00 | 0.02 | 0.00 | 81 | 1015.2 |
| 20260507000136 | 51 | 0 | 2.0 | 3.0 | 0.00 | 0.02 | 0.00 | 81 | 1015.1 |
| 20260507000036 | 51 | 20 | 3.0 | 3.0 | 0.00 | 0.02 | 0.00 | 81 | 1015.1 |
| 20260506235936 | 51 | 351 | 2.0 | 3.0 | 0.00 | 0.02 | 0.00 | 81 | 1015.1 |
| 20260506235836 | 51 | 350 | 2.0 | 3.0 | 0.00 | 0.02 | 0.00 | 81 | 1015.1 |
| 20260506235706 | 51 | 346 | 3.0 | 3.0 | 0.00 | 0.02 | 0.00 | 81 | 1015.1 |
| 20260506235606 | 51 | 348 | 3.0 | 3.0 | 0.00 | 0.02 | 0.00 | 81 | 1015.1 |
| 20260506235506 | 51 | 344 | 3.0 | 3.0 | 0.00 | 0.02 | 0.00 | 81 | 1015.1 |
| 20260506235406 | 51 | 345 | 3.0 | 3.0 | 0.00 | 0.02 | 0.00 | 81 | 1015.1 |
| 20260506235307 | 51 | 353 | 3.0 | 3.0 | 0.00 | 0.02 | 0.00 | 81 | 1015.1 |
| 20260506235205 | 51 | 345 | 3.0 | 3.0 | 0.00 | 0.02 | 0.00 | 81 | 1015.1 |
| 20260506235105 | 51 | 337 | 3.0 | 3.0 | 0.00 | 0.02 | 0.00 | 81 | 1015.1 |
| 20260506235005 | 51 | 355 | 3.0 | 3.0 | 0.00 | 0.02 | 0.00 | 81 | 1015.1 |
| 20260506234905 | 51 | 342 | 3.0 | 3.0 | 0.00 | 0.02 | 0.00 | 80 | 1015.1 |
| 20260506234805 | 51 | 340 | 3.0 | 3.0 | 0.00 | 0.02 | 0.00 | 80 | 1015.0 |
| 20260506234705 | 51 | 340 | 3.0 | 3.0 | 0.00 | 0.02 | 0.00 | 80 | 1015.0 |
| 20260506234605 | 51 | 342 | 3.0 | 3.0 | 0.00 | 0.02 | 0.00 | 80 | 1015.0 |
| 20260506234505 | 51 | 344 | 5.0 | 5.0 | 0.00 | 0.02 | 0.00 | 80 | 1015.0 |
| 20260506234405 | 51 | 342 | 3.0 | 5.0 | 0.00 | 0.02 | 0.00 | 80 | 1015.0 |
| 20260506234305 | 51 | 342 | 3.0 | 5.0 | 0.00 | 0.02 | 0.00 | 80 | 1015.0 |
| 20260506234205 | 51 | 347 | 5.0 | 3.0 | 0.00 | 0.02 | 0.00 | 80 | 1015.1 |
| 20260506234105 | 51 | 351 | 3.0 | 5.0 | 0.00 | 0.02 | 0.00 | 80 | 1015.0 |
| 20260506234005 | 51 | 345 | 3.0 | 3.0 | 0.00 | 0.02 | 0.00 | 80 | 1015.0 |
| 20260506233905 | 51 | 346 | 3.0 | 3.0 | 0.00 | 0.02 | 0.00 | 80 | 1015.0 |
| 20260506233804 | 51 | 341 | 3.0 | 3.0 | 0.00 | 0.02 | 0.00 | 80 | 1015.0 |
| 20260506233704 | 51 | 339 | 3.0 | 3.0 | 0.00 | 0.02 | 0.00 | 80 | 1015.0 |
| 20260506233604 | 51 | 336 | 3.0 | 3.0 | 0.00 | 0.02 | 0.00 | 80 | 1015.0 |
| 20260506233504 | 51 | 327 | 3.0 | 3.0 | 0.00 | 0.02 | 0.00 | 80 | 1015.0 |
| 20260506233404 | 51 | 326 | 3.0 | 3.0 | 0.00 | 0.02 | 0.00 | 80 | 1015.0 |
| 20260506233304 | 51 | 325 | 3.0 | 3.0 | 0.00 | 0.02 | 0.00 | 80 | 1015.0 |
| 20260506233204 | 51 | 328 | 5.0 | 3.0 | 0.00 | 0.02 | 0.00 | 80 | 1015.0 |
| 20260506233104 | 51 | 331 | 3.0 | 5.0 | 0.00 | 0.02 | 0.00 | 80 | 1015.0 |
| 20260506233004 | 51 | 332 | 3.0 | 5.0 | 0.00 | 0.02 | 0.00 | 80 | 1015.0 |
| 20260506232834 | 51 | 330 | 3.0 | 5.0 | 0.00 | 0.02 | 0.00 | 80 | 1015.0 |
| 20260506232704 | 51 | 335 | 3.0 | 3.0 | 0.00 | 0.02 | 0.00 | 80 | 1015.0 |
| 20260506232604 | 51 | 335 | 3.0 | 3.0 | 0.00 | 0.02 | 0.00 | 80 | 1015.0 |
| 20260506232434 | 51 | 333 | 3.0 | 3.0 | 0.00 | 0.02 | 0.00 | 80 | 1015.0 |
| 20260506232334 | 51 | 334 | 3.0 | 3.0 | 0.00 | 0.02 | 0.00 | 80 | 1015.0 |
| 20260506232234 | 51 | 333 | 3.0 | 3.0 | 0.00 | 0.02 | 0.00 | 80 | 1015.0 |
| 20260506232134 | 51 | 336 | 3.0 | 3.0 | 0.00 | 0.02 | 0.00 | 80 | 1015.0 |
| 20260506232034 | 51 | 328 | 5.0 | 5.0 | 0.00 | 0.02 | 0.00 | 80 | 1015.0 |
| 20260506231904 | 51 | 332 | 3.0 | 5.0 | 0.00 | 0.02 | 0.00 | 80 | 1015.0 |
| 20260506231734 | 51 | 328 | 5.0 | 5.0 | 0.00 | 0.02 | 0.00 | 80 | 1015.0 |
| 20260506231634 | 51 | 330 | 5.0 | 5.0 | 0.00 | 0.02 | 0.00 | 80 | 1015.0 |
| 20260506231534 | 51 | 328 | 3.0 | 5.0 | 0.00 | 0.02 | 0.00 | 80 | 1015.0 |
| 20260506231404 | 51 | 334 | 5.0 | 5.0 | 0.00 | 0.02 | 0.00 | 80 | 1015.1 |
| 20260506231304 | 51 | 333 | 5.0 | 5.0 | 0.00 | 0.02 | 0.00 | 80 | 1015.0 |
| 20260506231204 | 51 | 329 | 5.0 | 5.0 | 0.00 | 0.02 | 0.00 | 80 | 1015.0 |
| 20260506231104 | 51 | 325 | 5.0 | 5.0 | 0.00 | 0.02 | 0.00 | 80 | 1015.0 |
| 20260506231004 | 51 | 328 | 5.0 | 5.0 | 0.00 | 0.02 | 0.00 | 80 | 1015.1 |
| 20260506230834 | 51 | 327 | 5.0 | 6.0 | 0.00 | 0.02 | 0.00 | 80 | 1015.1 |
| 20260506230704 | 51 | 332 | 5.0 | 6.0 | 0.00 | 0.02 | 0.00 | 80 | 1015.1 |
| 20260506230534 | 51 | 333 | 5.0 | 5.0 | 0.00 | 0.02 | 0.00 | 80 | 1015.1 |
| 20260506230434 | 51 | 333 | 5.0 | 6.0 | 0.00 | 0.02 | 0.00 | 80 | 1015.1 |
| 20260506230334 | 51 | 330 | 5.0 | 6.0 | 0.00 | 0.02 | 0.00 | 80 | 1015.1 |
| 20260506230234 | 51 | 330 | 5.0 | 5.0 | 0.00 | 0.02 | 0.00 | 80 | 1015.0 |
| 20260506230134 | 51 | 327 | 5.0 | 5.0 | 0.00 | 0.02 | 0.00 | 80 | 1015.0 |
| 20260506230034 | 51 | 328 | 5.0 | 6.0 | 0.00 | 0.02 | 0.00 | 79 | 1015.1 |
| 20260506225934 | 51 | 327 | 3.0 | 5.0 | 0.00 | 0.02 | 0.02 | 79 | 1015.1 |
| 20260506225834 | 51 | 329 | 3.0 | 5.0 | 0.00 | 0.02 | 0.02 | 79 | 1015.1 |
| 20260506225704 | 51 | 324 | 3.0 | 5.0 | 0.00 | 0.02 | 0.02 | 79 | 1015.1 |
| 20260506225604 | 51 | 325 | 5.0 | 5.0 | 0.00 | 0.02 | 0.02 | 79 | 1015.1 |
| 20260506225504 | 51 | 318 | 5.0 | 5.0 | 0.00 | 0.02 | 0.02 | 79 | 1015.1 |
| 20260506225334 | 51 | 318 | 5.0 | 5.0 | 0.00 | 0.02 | 0.02 | 79 | 1015.1 |
| 20260506225234 | 51 | 313 | 5.0 | 5.0 | 0.00 | 0.02 | 0.02 | 79 | 1015.0 |
| 20260506225104 | 51 | 313 | 5.0 | 5.0 | 0.00 | 0.02 | 0.02 | 79 | 1015.1 |
| 20260506224934 | 51 | 314 | 3.0 | 6.0 | 0.00 | 0.02 | 0.02 | 79 | 1015.1 |
| 20260506224834 | 51 | 320 | 3.0 | 5.0 | 0.00 | 0.02 | 0.02 | 79 | 1015.1 |
| 20260506224734 | 51 | 319 | 3.0 | 3.0 | 0.00 | 0.02 | 0.02 | 79 | 1015.1 |
| 20260506224634 | 51 | 320 | 5.0 | 5.0 | 0.00 | 0.02 | 0.02 | 79 | 1015.0 |
| 20260506224504 | 51 | 321 | 5.0 | 5.0 | 0.00 | 0.02 | 0.02 | 79 | 1015.1 |
| 20260506224404 | 51 | 327 | 5.0 | 5.0 | 0.00 | 0.02 | 0.02 | 79 | 1015.0 |
| 20260506224304 | 51 | 324 | 5.0 | 5.0 | 0.00 | 0.02 | 0.02 | 79 | 1015.0 |
| 20260506224134 | 51 | 324 | 5.0 | 5.0 | 0.00 | 0.02 | 0.02 | 79 | 1015.1 |
| 20260506224004 | 51 | 327 | 5.0 | 5.0 | 0.00 | 0.02 | 0.02 | 79 | 1015.0 |
| 20260506223904 | 51 | 320 | 5.0 | 5.0 | 0.00 | 0.02 | 0.02 | 79 | 1015.1 |
| 20260506223734 | 51 | 333 | 5.0 | 5.0 | 0.00 | 0.02 | 0.02 | 78 | 1015.0 |
| 20260506223634 | 51 | 332 | 5.0 | 5.0 | 0.00 | 0.02 | 0.02 | 78 | 1015.0 |
| 20260506223504 | 51 | 325 | 5.0 | 5.0 | 0.00 | 0.02 | 0.02 | 78 | 1015.0 |
| 20260506223334 | 51 | 322 | 5.0 | 6.0 | 0.00 | 0.02 | 0.02 | 78 | 1015.0 |
| 20260506223204 | 51 | 315 | 5.0 | 6.0 | 0.00 | 0.02 | 0.02 | 78 | 1015.0 |
| 20260506223104 | 51 | 316 | 5.0 | 6.0 | 0.00 | 0.02 | 0.02 | 78 | 1015.0 |
| 20260506222934 | 51 | 318 | 5.0 | 5.0 | 0.00 | 0.02 | 0.02 | 78 | 1015.0 |
| 20260506222834 | 51 | 318 | 5.0 | 5.0 | 0.00 | 0.02 | 0.02 | 78 | 1015.0 |
| 20260506222733 | 51 | 316 | 5.0 | 5.0 | 0.00 | 0.02 | 0.02 | 78 | 1015.0 |
| 20260506222604 | 51 | 318 | 5.0 | 6.0 | 0.00 | 0.02 | 0.02 | 78 | 1015.0 |
| 20260506222504 | 51 | 322 | 5.0 | 5.0 | 0.00 | 0.02 | 0.02 | 78 | 1015.0 |
| 20260506222403 | 51 | 312 | 5.0 | 5.0 | 0.00 | 0.02 | 0.02 | 78 | 1015.0 |
| 20260506222233 | 51 | 327 | 5.0 | 5.0 | 0.00 | 0.02 | 0.02 | 78 | 1015.0 |
| 20260506222133 | 51 | 324 | 3.0 | 5.0 | 0.00 | 0.02 | 0.02 | 78 | 1015.0 |
| 20260506222033 | 51 | 323 | 3.0 | 3.0 | 0.00 | 0.02 | 0.02 | 78 | 1015.0 |
| 20260506221933 | 51 | 318 | 3.0 | 3.0 | 0.00 | 0.02 | 0.02 | 78 | 1015.0 |
| 20260506221803 | 51 | 313 | 5.0 | 5.0 | 0.00 | 0.02 | 0.02 | 78 | 1015.0 |
| 20260506221703 | 51 | 311 | 3.0 | 3.0 | 0.00 | 0.02 | 0.02 | 78 | 1015.0 |
| 20260506221603 | 51 | 311 | 3.0 | 5.0 | 0.00 | 0.02 | 0.02 | 78 | 1015.0 |
| 20260506221504 | 51 | 313 | 5.0 | 5.0 | 0.00 | 0.02 | 0.02 | 78 | 1015.0 |
| 20260506221333 | 51 | 321 | 3.0 | 5.0 | 0.00 | 0.02 | 0.02 | 78 | 1015.0 |
| 20260506221233 | 51 | 322 | 3.0 | 5.0 | 0.00 | 0.02 | 0.02 | 78 | 1015.0 |
| 20260506221133 | 51 | 314 | 5.0 | 5.0 | 0.00 | 0.02 | 0.02 | 78 | 1015.0 |
| 20260506221033 | 51 | 314 | 5.0 | 5.0 | 0.00 | 0.02 | 0.02 | 78 | 1015.0 |
| 20260506220933 | 51 | 315 | 5.0 | 5.0 | 0.00 | 0.02 | 0.02 | 78 | 1014.9 |
| 20260506220833 | 51 | 314 | 5.0 | 5.0 | 0.00 | 0.02 | 0.02 | 78 | 1014.9 |
| 20260506220733 | 51 | 313 | 5.0 | 6.0 | 0.00 | 0.02 | 0.02 | 78 | 1014.9 |
| 20260506220633 | 51 | 319 | 5.0 | 5.0 | 0.00 | 0.02 | 0.02 | 78 | 1014.9 |
| 20260506220533 | 51 | 317 | 5.0 | 5.0 | 0.00 | 0.02 | 0.02 | 78 | 1014.9 |
| 20260506220403 | 51 | 320 | 5.0 | 5.0 | 0.00 | 0.02 | 0.02 | 78 | 1014.9 |
| 20260506220303 | 51 | 321 | 5.0 | 6.0 | 0.00 | 0.02 | 0.02 | 78 | 1014.9 |
| 20260506220203 | 51 | 319 | 5.0 | 5.0 | 0.00 | 0.02 | 0.02 | 79 | 1014.9 |
| 20260506220103 | 51 | 323 | 5.0 | 6.0 | 0.00 | 0.02 | 0.02 | 79 | 1014.9 |
| 20260506215933 | 51 | 324 | 5.0 | 5.0 | 0.00 | 0.02 | 0.02 | 79 | 1014.9 |
| 20260506215833 | 51 | 326 | 5.0 | 5.0 | 0.00 | 0.02 | 0.02 | 79 | 1014.9 |
| 20260506215703 | 51 | 321 | 5.0 | 5.0 | 0.00 | 0.02 | 0.02 | 79 | 1014.9 |
| 20260506215603 | 51 | 324 | 3.0 | 5.0 | 0.00 | 0.02 | 0.02 | 79 | 1014.9 |
| 20260506215433 | 51 | 330 | 6.0 | 6.0 | 0.00 | 0.02 | 0.02 | 79 | 1014.9 |
| 20260506215306 | 51 | 315 | 5.0 | 6.0 | 0.00 | 0.02 | 0.02 | 79 | 1014.9 |
| 20260506215133 | 51 | 318 | 5.0 | 6.0 | 0.00 | 0.02 | 0.02 | 79 | 1014.9 |
| 20260506215033 | 51 | 314 | 5.0 | 6.0 | 0.00 | 0.02 | 0.02 | 79 | 1014.9 |
| 20260506214903 | 51 | 310 | 6.0 | 6.0 | 0.00 | 0.02 | 0.02 | 79 | 1014.9 |
| 20260506214803 | 51 | 314 | 5.0 | 6.0 | 0.00 | 0.02 | 0.02 | 79 | 1014.9 |
| 20260506214633 | 51 | 311 | 6.0 | 6.0 | 0.00 | 0.02 | 0.02 | 79 | 1014.9 |
| 20260506214533 | 51 | 314 | 5.0 | 6.0 | 0.00 | 0.02 | 0.02 | 79 | 1014.9 |
| 20260506214403 | 51 | 316 | 5.0 | 6.0 | 0.00 | 0.02 | 0.02 | 79 | 1014.9 |
| 20260506214303 | 51 | 320 | 5.0 | 5.0 | 0.00 | 0.02 | 0.02 | 79 | 1014.9 |
| 20260506214133 | 51 | 325 | 5.0 | 6.0 | 0.00 | 0.02 | 0.02 | 79 | 1014.9 |
| 20260506214033 | 51 | 330 | 5.0 | 6.0 | 0.00 | 0.02 | 0.02 | 79 | 1014.9 |
| 20260506213933 | 51 | 322 | 5.0 | 6.0 | 0.00 | 0.02 | 0.02 | 79 | 1014.9 |
| 20260506213833 | 51 | 320 | 5.0 | 5.0 | 0.00 | 0.02 | 0.02 | 79 | 1014.9 |
| 20260506213703 | 51 | 319 | 5.0 | 6.0 | 0.00 | 0.02 | 0.02 | 79 | 1014.9 |
| 20260506213603 | 51 | 320 | 5.0 | 6.0 | 0.00 | 0.02 | 0.02 | 78 | 1014.9 |
| 20260506213503 | 51 | 319 | 5.0 | 5.0 | 0.00 | 0.02 | 0.02 | 78 | 1014.9 |
| 20260506213403 | 51 | 322 | 5.0 | 6.0 | 0.00 | 0.02 | 0.02 | 79 | 1014.9 |